CW2046 Weather Reports


time (UTC)temp
F
wind
direction
speed
knots
gust
knots
rain 1hr
in
rain 24hr
in
rain mn
in
humidity
%
barometer
mb
20260510162602 84 312 0.0 1.7 0.00 0.00 0.00 40 1016.1
20260510162503 84 312 0.0 1.7 0.00 0.00 0.00 39 1016.0
20260510162403 84 309 0.0 1.7 0.00 0.00 0.00 40 1016.0
20260510162305 84 60 0.0 1.7 0.00 0.00 0.00 42 1016.0
20260510162002 84 318 0.0 1.7 0.00 0.00 0.00 39 1016.1
20260510161902 84 304 0.0 1.7 0.00 0.00 0.00 43 1016.1
20260510161802 84 300 0.0 1.7 0.00 0.00 0.00 39 1016.0
20260510161703 84 108 0.0 1.7 0.00 0.00 0.00 40 1016.2
20260510161505 83 136 0.0 1.7 0.00 0.00 0.00 40 1015.6
20260510161502 83 136 0.0 1.7 0.00 0.00 0.00 40 1016.0
20260510161403 83 136 0.0 1.7 0.00 0.00 0.00 42 1016.1
20260510161103 82 345 0.0 1.7 0.00 0.00 0.00 46 1016.1
20260510161002 82 344 0.0 1.7 0.00 0.00 0.00 44 1016.0
20260510160802 81 344 0.0 1.7 0.00 0.00 0.00 44 1016.1
20260510160704 81 344 0.0 1.7 0.00 0.00 0.00 45 1016.1
20260510160602 81 340 0.0 1.7 0.00 0.00 0.00 45 1016.0
20260510160502 81 340 0.0 1.7 0.00 0.00 0.00 44 1016.1
20260510160403 81 342 0.0 1.7 0.00 0.00 0.00 45 1016.2
20260510160303 81 335 0.0 1.7 0.00 0.00 0.00 43 1016.1
20260510160202 81 332 0.0 1.7 0.00 0.00 0.00 45 1016.0
20260510160005 81 329 0.0 1.7 0.00 0.00 0.00 46 1015.6
20260510160002 81 329 0.9 1.7 0.00 0.00 0.00 46 1016.0
20260510155901 80 249 0.9 1.7 0.00 0.00 0.00 44 1016.1
20260510155801 80 248 0.9 1.7 0.00 0.00 0.00 48 1016.2
20260510155702 80 298 0.9 1.7 0.00 0.00 0.00 48 1016.0
20260510155602 80 323 0.9 1.7 0.00 0.00 0.00 47 1016.1
20260510155502 80 318 0.9 1.7 0.00 0.00 0.00 50 1016.1
20260510155401 80 309 0.9 1.7 0.00 0.00 0.00 47 1016.1
20260510155301 80 243 0.9 1.7 0.00 0.00 0.00 46 1016.1
20260510155200 80 277 0.9 1.7 0.00 0.00 0.00 44 1016.1
20260510155101 80 248 0.9 1.7 0.00 0.00 0.00 47 1016.1
20260510155002 80 323 0.9 1.7 0.00 0.00 0.00 46 1016.1
20260510154902 80 316 0.9 1.7 0.00 0.00 0.00 46 1016.2
20260510154801 80 323 0.0 1.7 0.00 0.00 0.00 45 1016.1
20260510154502 80 314 0.0 1.7 0.00 0.00 0.00 44 1016.1
20260510154402 79 203 0.0 1.7 0.00 0.00 0.00 45 1016.1
20260510154202 79 333 0.0 1.7 0.00 0.00 0.00 48 1016.2
20260510154101 79 333 0.0 1.7 0.00 0.00 0.00 50 1016.1
20260510154003 79 15 0.0 1.7 0.00 0.00 0.00 47 1016.2
20260510153901 79 348 0.0 1.7 0.00 0.00 0.00 48 1016.2
20260510153802 79 326 0.0 1.7 0.00 0.00 0.00 48 1016.2
20260510153702 79 321 0.0 1.7 0.00 0.00 0.00 48 1016.2
20260510153602 78 331 0.0 1.7 0.00 0.00 0.00 48 1016.2
20260510153502 78 345 0.0 1.7 0.00 0.00 0.00 48 1016.3
20260510153402 78 350 0.0 1.7 0.00 0.00 0.00 49 1016.2
20260510153201 78 121 0.0 1.7 0.00 0.00 0.00 49 1016.2
20260510153003 78 333 0.0 0.9 0.00 0.00 0.00 50 1015.9
20260510152901 77 330 0.0 0.9 0.00 0.00 0.00 51 1016.3
20260510152802 77 315 0.0 0.9 0.00 0.00 0.00 52 1016.2
20260510152601 77 325 0.0 1.7 0.00 0.00 0.00 52 1016.2
20260510152401 77 332 0.0 1.7 0.00 0.00 0.00 52 1016.2
20260510152306 77 331 0.0 1.7 0.00 0.00 0.00 51 1016.3
20260510152102 77 331 0.0 1.7 0.00 0.00 0.00 50 1016.3
20260510151902 76 324 0.0 1.7 0.00 0.00 0.00 53 1016.3
20260510151601 76 318 0.0 1.7 0.00 0.00 0.00 55 1016.3
20260510151501 76 271 0.0 1.7 0.00 0.00 0.00 56 1016.0
20260510151302 76 321 0.0 1.7 0.00 0.00 0.00 57 1016.3
20260510151201 76 331 0.0 1.7 0.00 0.00 0.00 57 1016.2
20260510151102 75 359 0.0 1.7 0.00 0.00 0.00 56 1016.3
20260510151003 75 278 0.0 1.7 0.00 0.00 0.00 55 1016.3
20260510150903 75 266 0.0 1.7 0.00 0.00 0.00 58 1016.3
20260510150801 75 41 0.0 0.9 0.00 0.00 0.00 58 1016.2
20260510150703 75 125 0.0 0.9 0.00 0.00 0.00 57 1016.2
20260510150601 75 105 0.0 1.7 0.00 0.00 0.00 59 1016.2
20260510150502 74 104 0.0 1.7 0.00 0.00 0.00 57 1016.2
20260510150402 74 101 0.0 1.7 0.00 0.00 0.00 57 1016.2
20260510150301 74 332 0.0 1.7 0.00 0.00 0.00 56 1016.1
20260510150005 74 331 0.0 1.7 0.00 0.00 0.00 57 1016.2
20260510145902 74 335 0.0 1.7 0.00 0.00 0.00 59 1016.1
20260510145802 74 335 0.0 1.7 0.00 0.00 0.00 58 1016.2
20260510145703 74 335 0.0 1.7 0.00 0.00 0.00 57 1016.2
20260510145602 74 326 0.0 1.7 0.00 0.00 0.00 59 1016.2
20260510145502 73 314 0.0 1.7 0.00 0.00 0.00 62 1016.2
20260510145402 73 313 0.0 1.7 0.00 0.00 0.00 60 1016.0
20260510145306 73 269 0.0 0.9 0.00 0.00 0.00 60 1016.1
20260510145203 73 323 0.0 0.9 0.00 0.00 0.00 59 1016.0
20260510144903 73 323 0.0 0.9 0.00 0.00 0.00 60 1016.1
20260510144802 73 323 0.0 0.9 0.00 0.00 0.00 60 1016.0
20260510144602 72 323 0.0 0.9 0.00 0.00 0.00 60 1016.0
20260510144502 72 323 0.0 0.9 0.00 0.00 0.00 61 1016.0
20260510144402 72 323 0.0 0.9 0.00 0.00 0.00 60 1016.0
20260510144302 72 323 0.0 0.9 0.00 0.00 0.00 62 1015.9
20260510144203 72 323 0.0 1.7 0.00 0.00 0.00 61 1015.9
20260510144102 72 321 0.0 1.7 0.00 0.00 0.00 61 1015.9
20260510144002 72 311 0.0 1.7 0.00 0.00 0.00 62 1016.1
20260510143902 72 311 0.0 1.7 0.00 0.00 0.00 61 1016.1
20260510143602 72 269 0.0 1.7 0.00 0.00 0.00 64 1016.0
20260510143503 72 271 0.0 1.7 0.00 0.00 0.00 64 1016.0
20260510143402 71 308 0.0 1.7 0.00 0.00 0.00 62 1016.0
20260510143303 71 247 0.0 2.6 0.00 0.00 0.00 63 1016.0
20260510143203 71 299 0.0 0.9 0.00 0.00 0.00 65 1016.0
20260510143103 71 301 0.0 0.9 0.00 0.00 0.00 67 1016.2
20260510143002 71 300 0.0 1.7 0.00 0.00 0.00 67 1015.8
20260510142802 71 297 0.0 1.7 0.00 0.00 0.00 68 1016.0
20260510142702 71 287 0.0 1.7 0.00 0.00 0.00 67 1016.1
20260510142602 71 267 0.0 1.7 0.00 0.00 0.00 67 1016.0
20260510142403 71 304 0.0 1.7 0.00 0.00 0.00 68 1016.0
20260510142305 71 302 0.0 1.7 0.00 0.00 0.00 67 1015.9
20260510142203 70 314 0.0 0.9 0.00 0.00 0.00 69 1015.9
20260510142102 70 316 0.0 0.9 0.00 0.00 0.00 69 1016.0
20260510141902 70 311 0.0 0.9 0.00 0.00 0.00 70 1016.1
20260510141803 70 315 0.0 0.9 0.00 0.00 0.00 70 1016.1
20260510141703 70 315 0.0 0.9 0.00 0.00 0.00 71 1016.1
20260510141603 70 300 0.0 0.9 0.00 0.00 0.00 71 1016.1
20260510141503 70 298 0.0 0.9 0.00 0.00 0.00 72 1015.7
20260510141203 70 329 0.0 0.9 0.00 0.00 0.00 70 1016.1
20260510141102 69 329 0.0 0.9 0.00 0.00 0.00 70 1016.0
20260510140903 69 329 0.0 0.9 0.00 0.00 0.00 71 1016.1
20260510140803 69 329 0.0 0.9 0.00 0.00 0.00 70 1016.1
20260510140602 69 314 0.0 0.9 0.00 0.00 0.00 72 1016.0
20260510140501 69 314 0.0 0.9 0.00 0.00 0.00 71 1015.9
20260510140403 69 314 0.0 0.9 0.00 0.00 0.00 71 1016.1
20260510140302 69 313 0.0 0.9 0.00 0.00 0.00 71 1016.1
20260510140203 69 314 0.0 0.9 0.00 0.00 0.00 72 1016.0
20260510140002 69 313 0.0 0.9 0.00 0.00 0.00 73 1016.1
20260510135901 69 271 0.0 0.9 0.00 0.00 0.00 73 1016.1
20260510135802 69 271 0.0 0.9 0.00 0.00 0.00 73 1016.0
20260510135701 68 272 0.0 0.9 0.00 0.00 0.00 72 1016.0
20260510135602 68 284 0.0 0.9 0.00 0.00 0.00 74 1016.0
20260510135501 68 284 0.0 0.9 0.00 0.00 0.00 74 1016.0
20260510135401 68 284 0.0 0.9 0.00 0.00 0.00 74 1016.1
20260510135301 68 284 0.0 0.9 0.00 0.00 0.00 75 1016.0
20260510135200 68 281 0.0 0.9 0.00 0.00 0.00 74 1016.0
20260510135101 68 281 0.0 0.9 0.00 0.00 0.00 73 1016.0
20260510135001 68 281 0.0 0.9 0.00 0.00 0.00 75 1016.1
20260510134901 68 281 0.0 0.9 0.00 0.00 0.00 75 1016.0
20260510134801 68 280 0.0 0.0 0.00 0.00 0.00 75 1016.0
20260510134701 68 280 0.0 0.0 0.00 0.00 0.00 75 1016.1
20260510134601 68 280 0.0 0.0 0.00 0.00 0.00 74 1016.0
20260510134502 68 280 0.0 0.0 0.00 0.00 0.00 74 1016.1
20260510134500 68 280 0.0 0.0 0.00 0.00 0.00 74 1015.8
20260510134402 68 280 0.0 0.0 0.00 0.00 0.00 75 1016.1
20260510134301 68 271 0.0 0.0 0.00 0.00 0.00 75 1016.0
20260510134202 68 271 0.0 0.0 0.00 0.00 0.00 77 1016.1
20260510134002 68 271 0.0 0.0 0.00 0.00 0.00 77 1016.2
20260510133801 67 272 0.0 0.0 0.00 0.00 0.00 77 1016.1
20260510133701 67 271 0.0 0.0 0.00 0.00 0.00 77 1016.0
20260510133600 67 270 0.0 0.9 0.00 0.00 0.00 77 1016.0
20260510133400 67 270 0.0 0.9 0.00 0.00 0.00 77 1016.1
20260510133202 67 271 0.0 0.9 0.00 0.00 0.00 78 1016.1
20260510133002 67 270 0.0 0.9 0.00 0.00 0.00 77 1015.8
20260510132801 67 270 0.0 0.9 0.00 0.00 0.00 78 1016.2
20260510132701 67 270 0.0 0.9 0.00 0.00 0.00 78 1016.1
20260510132601 67 250 0.0 0.9 0.00 0.00 0.00 79 1016.2
20260510132402 66 270 0.0 0.9 0.00 0.00 0.00 79 1016.0
20260510132301 66 269 0.0 0.9 0.00 0.00 0.00 79 1016.2
20260510132203 66 264 0.0 0.0 0.00 0.00 0.00 79 1016.1
20260510132101 66 264 0.0 0.0 0.00 0.00 0.00 80 1016.1
20260510132001 66 264 0.0 0.0 0.00 0.00 0.00 80 1016.0
20260510131902 66 264 0.0 0.0 0.00 0.00 0.00 81 1016.0
20260510131801 66 248 0.0 0.0 0.00 0.00 0.00 81 1016.1
20260510131701 66 248 0.0 0.0 0.00 0.00 0.00 81 1016.0
20260510131603 66 247 0.0 0.0 0.00 0.00 0.00 81 1015.6
20260510131601 66 247 0.0 0.0 0.00 0.00 0.00 81 1015.9
20260510131501 66 248 0.0 0.0 0.00 0.00 0.00 82 1016.0
20260510131402 66 248 0.0 0.0 0.00 0.00 0.00 82 1016.1
20260510131201 66 248 0.0 0.0 0.00 0.00 0.00 82 1015.9
20260510131101 65 248 0.0 0.0 0.00 0.00 0.00 82 1016.0
20260510131001 65 248 0.0 0.0 0.00 0.00 0.00 83 1015.9
20260510130802 65 248 0.0 0.0 0.00 0.00 0.00 83 1015.9
20260510130701 65 248 0.0 0.0 0.00 0.00 0.00 83 1015.9
20260510130602 65 248 0.0 0.0 0.00 0.00 0.00 84 1015.9
20260510130503 65 248 0.0 0.0 0.00 0.00 0.00 84 1015.8
20260510130201 65 248 0.0 0.0 0.00 0.00 0.00 85 1015.9
20260510130004 64 248 0.0 0.0 0.00 0.00 0.00 86 1015.9
20260510125902 64 248 0.0 0.0 0.00 0.00 0.00 86 1015.8
20260510125803 64 248 0.0 0.0 0.00 0.00 0.00 87 1015.8
20260510125702 64 247 0.0 0.0 0.00 0.00 0.00 87 1015.8
20260510125603 64 248 0.0 0.0 0.00 0.00 0.00 87 1015.8
20260510125503 64 248 0.0 0.0 0.00 0.00 0.00 87 1015.7
20260510125402 64 248 0.0 0.0 0.00 0.00 0.00 88 1015.8
20260510125306 64 248 0.0 0.0 0.00 0.00 0.00 88 1015.7
20260510125102 63 248 0.0 0.0 0.00 0.00 0.00 88 1015.7
20260510125003 63 248 0.0 0.0 0.00 0.00 0.00 88 1015.7
20260510124802 63 248 0.0 0.0 0.00 0.00 0.00 89 1015.7
20260510124703 63 248 0.0 0.0 0.00 0.00 0.00 89 1015.7
20260510124602 63 248 0.0 0.0 0.00 0.00 0.00 90 1015.6
20260510124504 63 248 0.0 0.0 0.00 0.00 0.00 90 1015.3
20260510124502 63 248 0.0 0.0 0.00 0.00 0.00 90 1015.7
20260510124403 63 248 0.0 0.0 0.00 0.00 0.00 90 1015.7
20260510124303 63 248 0.0 0.0 0.00 0.00 0.00 90 1015.6
20260510124104 63 248 0.0 0.0 0.00 0.00 0.00 90 1015.7
20260510124002 63 248 0.0 0.0 0.00 0.00 0.00 90 1015.7
20260510123902 63 248 0.0 0.0 0.00 0.00 0.00 90 1015.6
20260510123804 62 248 0.0 0.0 0.00 0.00 0.00 90 1015.6
20260510123703 62 248 0.0 0.0 0.00 0.00 0.00 90 1015.6
20260510123502 62 248 0.0 0.0 0.00 0.00 0.00 90 1015.5
20260510123402 62 248 0.0 0.0 0.00 0.00 0.00 90 1015.5
20260510123302 62 248 0.0 0.0 0.00 0.00 0.00 90 1015.5
20260510123101 62 248 0.0 0.0 0.00 0.00 0.00 90 1015.4
20260510123003 61 248 0.0 0.0 0.00 0.00 0.00 90 1015.2
20260510122902 61 248 0.0 0.0 0.00 0.00 0.00 90 1015.4
20260510122803 61 248 0.0 0.0 0.00 0.00 0.00 90 1015.4
20260510122702 61 248 0.0 0.0 0.00 0.00 0.00 90 1015.4
20260510122601 61 248 0.0 0.0 0.00 0.00 0.00 90 1015.4
20260510122501 61 248 0.0 0.0 0.00 0.00 0.00 90 1015.4
20260510122402 61 248 0.0 0.0 0.00 0.00 0.00 90 1015.4
20260510122305 61 248 0.0 0.0 0.00 0.00 0.00 90 1015.4
20260510122102 61 248 0.0 0.0 0.00 0.00 0.00 90 1015.4
20260510122002 60 248 0.0 0.0 0.00 0.00 0.00 90 1015.4
20260510121902 60 248 0.0 0.0 0.00 0.00 0.00 90 1015.4
20260510121803 60 248 0.0 0.0 0.00 0.00 0.00 90 1015.4
20260510121603 60 248 0.0 0.0 0.00 0.00 0.00 90 1015.4
20260510121504 60 248 0.0 0.0 0.00 0.00 0.00 90 1015.0
20260510121502 60 248 0.0 0.0 0.00 0.00 0.00 90 1015.4
20260510121403 60 248 0.0 0.0 0.00 0.00 0.00 90 1015.4
20260510121303 60 248 0.0 0.0 0.00 0.00 0.00 90 1015.3
20260510121102 60 248 0.0 0.0 0.00 0.00 0.00 90 1015.3
20260510121002 60 248 0.0 0.0 0.00 0.00 0.00 90 1015.3
20260510120902 60 248 0.0 0.0 0.00 0.00 0.00 90 1015.4
20260510120804 60 248 0.0 0.0 0.00 0.00 0.00 90 1015.4
20260510120702 60 248 0.0 0.0 0.00 0.00 0.00 90 1015.3
20260510120602 59 248 0.0 0.0 0.00 0.00 0.00 90 1015.3
20260510120502 59 248 0.0 0.0 0.00 0.00 0.00 90 1015.2
20260510120402 59 248 0.0 0.0 0.00 0.00 0.00 90 1015.2
20260510120202 59 248 0.0 0.0 0.00 0.00 0.00 90 1015.3
20260510120003 59 248 0.0 0.0 0.00 0.00 0.00 90 1015.3
20260510115902 59 248 0.0 0.0 0.00 0.00 0.00 90 1015.2
20260510115702 59 248 0.0 0.0 0.00 0.00 0.00 90 1015.2
20260510115601 59 248 0.0 0.0 0.00 0.00 0.00 90 1015.2
20260510115501 59 248 0.0 0.0 0.00 0.00 0.00 90 1015.2
20260510115301 59 248 0.0 0.0 0.00 0.00 0.00 90 1015.3
20260510115202 59 248 0.0 0.0 0.00 0.00 0.00 90 1015.2
20260510115101 58 248 0.0 0.0 0.00 0.00 0.00 90 1015.3
20260510115001 58 248 0.0 0.0 0.00 0.00 0.00 90 1015.2
20260510114901 58 248 0.0 0.0 0.00 0.00 0.00 90 1015.3
20260510114701 58 248 0.0 0.0 0.00 0.00 0.00 90 1015.2
20260510114601 58 248 0.0 0.0 0.00 0.00 0.00 90 1015.2
20260510114503 58 246 0.0 0.0 0.00 0.00 0.00 90 1015.2
20260510114501 58 246 0.0 0.0 0.00 0.00 0.00 90 1014.9
20260510114400 58 246 0.0 0.0 0.00 0.00 0.00 90 1015.1
20260510114302 58 246 0.0 0.0 0.00 0.00 0.00 90 1015.2
20260510114201 58 246 0.0 0.0 0.00 0.00 0.00 90 1015.2
20260510114100 58 246 0.0 0.0 0.00 0.00 0.00 90 1015.2
20260510113902 58 246 0.0 0.0 0.00 0.00 0.00 90 1015.2
20260510113800 58 246 0.0 0.0 0.00 0.00 0.00 90 1015.0
20260510113701 58 246 0.0 0.0 0.00 0.00 0.00 90 1015.0
20260510113600 58 246 0.0 0.0 0.00 0.00 0.00 90 1015.1
20260510113501 58 245 0.0 0.0 0.00 0.00 0.00 90 1015.1
20260510113301 58 246 0.0 0.0 0.00 0.00 0.00 90 1015.0
20260510113201 58 246 0.0 0.0 0.00 0.00 0.00 90 1015.0
20260510113101 58 245 0.0 0.0 0.00 0.00 0.00 90 1015.1
20260510113001 58 246 0.0 0.0 0.00 0.00 0.00 90 1014.8
20260510112901 58 246 0.0 0.0 0.00 0.00 0.00 90 1015.0
20260510112801 58 246 0.0 0.0 0.00 0.00 0.00 90 1015.1
20260510112601 58 245 0.0 0.0 0.00 0.00 0.00 90 1015.0
20260510112501 58 246 0.0 0.0 0.00 0.00 0.00 90 1015.0
20260510112402 58 245 0.0 0.0 0.00 0.00 0.00 90 1015.0
20260510112305 58 246 0.0 0.0 0.00 0.00 0.00 90 1014.9
20260510112202 58 246 0.0 0.0 0.00 0.00 0.00 90 1014.8
20260510112001 58 245 0.0 0.0 0.00 0.00 0.00 90 1014.9
20260510111900 58 245 0.0 0.0 0.00 0.00 0.00 90 1014.9
20260510111802 58 246 0.0 0.0 0.00 0.00 0.00 90 1014.9
20260510111700 58 245 0.0 0.0 0.00 0.00 0.00 90 1014.8
20260510111604 58 246 0.0 0.0 0.00 0.00 0.00 90 1014.8
20260510111602 58 246 0.0 0.0 0.00 0.00 0.00 90 1014.5
20260510111500 58 246 0.0 0.0 0.00 0.00 0.00 90 1014.8
20260510111301 58 245 0.0 0.0 0.00 0.00 0.00 90 1014.7
20260510111200 58 246 0.0 0.0 0.00 0.00 0.00 90 1014.7
20260510111101 58 246 0.0 0.0 0.00 0.00 0.00 90 1014.7
20260510111002 58 246 0.0 0.0 0.00 0.00 0.00 90 1014.7
20260510110901 58 246 0.0 0.0 0.00 0.00 0.00 90 1014.7
20260510110801 58 245 0.0 0.0 0.00 0.00 0.00 90 1014.7
20260510110700 58 246 0.0 0.0 0.00 0.00 0.00 90 1014.7
20260510110600 58 246 0.0 0.0 0.00 0.00 0.00 90 1014.5
20260510110501 58 245 0.0 0.0 0.00 0.00 0.00 90 1014.6
20260510110400 58 246 0.0 0.0 0.00 0.00 0.00 90 1014.7
20260510110301 58 245 0.0 0.0 0.00 0.00 0.00 90 1014.6
20260510110201 58 246 0.0 0.0 0.00 0.00 0.00 90 1014.6
20260510110004 58 246 0.0 0.0 0.00 0.00 0.00 90 1014.3
20260510110001 58 246 0.0 0.0 0.00 0.00 0.00 90 1014.6
20260510105800 58 246 0.0 0.0 0.00 0.00 0.00 90 1014.4
20260510105601 58 245 0.0 0.0 0.00 0.00 0.00 90 1014.5
20260510105501 58 246 0.0 0.0 0.00 0.00 0.00 90 1014.4
20260510105401 58 246 0.0 0.0 0.00 0.00 0.00 90 1014.5
20260510105306 58 246 0.0 0.0 0.00 0.00 0.00 90 1014.4
20260510105200 58 245 0.0 0.0 0.00 0.00 0.00 90 1014.3
20260510105101 58 245 0.0 0.0 0.00 0.00 0.00 90 1014.3
20260510105001 58 246 0.0 0.0 0.00 0.00 0.00 90 1014.2
20260510104902 58 246 0.0 0.0 0.00 0.00 0.00 90 1014.2
20260510104802 58 246 0.0 0.0 0.00 0.00 0.00 90 1014.2
20260510104603 58 246 0.0 0.0 0.00 0.00 0.00 90 1014.2
20260510104501 58 246 0.0 0.0 0.00 0.00 0.00 90 1013.9
20260510104401 58 246 0.0 0.0 0.00 0.00 0.00 90 1014.2
20260510104301 58 246 0.0 0.0 0.00 0.00 0.00 90 1014.2
20260510104202 58 246 0.0 0.0 0.00 0.00 0.00 90 1014.2
20260510104101 58 246 0.0 0.0 0.00 0.00 0.00 90 1014.2
20260510104001 58 246 0.0 0.0 0.00 0.00 0.00 90 1014.2
20260510103902 58 246 0.0 0.0 0.00 0.00 0.00 90 1014.1
20260510103801 58 246 0.0 0.0 0.00 0.00 0.00 90 1014.1
20260510103700 58 246 0.0 0.0 0.00 0.00 0.00 90 1014.0
20260510103603 58 245 0.0 0.0 0.00 0.00 0.00 90 1014.0
20260510103500 58 246 0.0 0.0 0.00 0.00 0.00 90 1013.9
20260510103401 58 246 0.0 0.0 0.00 0.00 0.00 90 1014.0
20260510103301 58 245 0.0 0.0 0.00 0.00 0.00 90 1013.9
20260510103201 58 246 0.0 0.0 0.00 0.00 0.00 90 1014.0
20260510103102 58 246 0.0 0.0 0.00 0.00 0.00 90 1013.9
20260510103003 58 246 0.0 0.0 0.00 0.00 0.00 90 1013.9
20260510103001 58 246 0.0 0.0 0.00 0.00 0.00 90 1013.6
20260510102903 58 246 0.0 0.0 0.00 0.00 0.00 90 1013.9
20260510102800 58 245 0.0 0.0 0.00 0.00 0.00 90 1013.9
20260510102702 58 246 0.0 0.0 0.00 0.00 0.00 90 1013.9
20260510102601 58 246 0.0 0.0 0.00 0.00 0.00 90 1013.8
20260510102501 58 246 0.0 0.0 0.00 0.00 0.00 90 1013.8
20260510102400 58 245 0.0 0.0 0.00 0.00 0.00 90 1013.7
20260510102300 58 246 0.0 0.0 0.00 0.00 0.00 90 1013.7
20260510102201 58 246 0.0 0.0 0.00 0.00 0.00 90 1013.7
20260510102102 58 245 0.0 0.0 0.00 0.00 0.00 90 1013.7
20260510101901 58 246 0.0 0.0 0.00 0.00 0.00 90 1013.8
20260510101802 58 246 0.0 0.0 0.00 0.00 0.00 90 1013.6
20260510101701 58 246 0.0 0.0 0.00 0.00 0.00 90 1013.5
20260510101501 58 246 0.0 0.0 0.00 0.00 0.00 90 1013.3
20260510101301 58 248 0.0 0.0 0.00 0.00 0.00 90 1013.5
20260510101200 58 248 0.0 0.0 0.00 0.00 0.00 90 1013.6
20260510101102 58 248 0.0 0.0 0.00 0.00 0.00 90 1013.6
20260510101000 58 248 0.0 0.0 0.00 0.00 0.00 90 1013.5
20260510100800 58 248 0.0 0.0 0.00 0.00 0.00 90 1013.6
20260510100702 58 248 0.0 0.0 0.00 0.00 0.00 90 1013.7
20260510100600 58 248 0.0 0.0 0.00 0.00 0.00 90 1013.5
20260510100501 59 248 0.0 0.0 0.00 0.00 0.00 90 1013.6
20260510100300 59 248 0.0 0.0 0.00 0.00 0.00 90 1013.5
20260510100201 59 248 0.0 0.0 0.00 0.00 0.00 90 1013.6
20260510100101 59 248 0.0 0.0 0.00 0.00 0.00 90 1013.5
20260510100001 59 248 0.0 0.0 0.00 0.00 0.00 90 1013.5
20260510095902 59 248 0.0 0.0 0.00 0.00 0.00 90 1013.4
20260510095800 59 248 0.0 0.0 0.00 0.00 0.00 90 1013.3
20260510095701 59 248 0.0 0.0 0.00 0.00 0.00 90 1013.4
20260510095600 59 248 0.0 0.0 0.00 0.00 0.00 90 1013.4
20260510095500 59 248 0.0 0.0 0.00 0.00 0.00 90 1013.4
20260510095401 59 248 0.0 0.0 0.00 0.00 0.00 90 1013.4
20260510095305 59 248 0.0 0.0 0.00 0.00 0.00 90 1013.4
20260510095201 59 248 0.0 0.0 0.00 0.00 0.00 90 1013.4
20260510095101 59 248 0.0 0.0 0.00 0.00 0.00 90 1013.4
20260510095001 59 248 0.0 0.0 0.00 0.00 0.00 90 1013.3
20260510094901 59 248 0.0 0.0 0.00 0.00 0.00 90 1013.3
20260510094702 59 248 0.0 0.0 0.00 0.00 0.00 90 1013.3
20260510094502 59 248 0.0 0.0 0.00 0.00 0.00 90 1012.9
20260510094301 59 248 0.0 0.0 0.00 0.00 0.00 90 1013.3
20260510094201 59 248 0.0 0.0 0.00 0.00 0.00 90 1013.2
20260510094100 59 248 0.0 0.0 0.00 0.00 0.00 90 1013.3
20260510094002 59 246 0.0 0.0 0.00 0.00 0.00 90 1013.2
20260510093901 59 246 0.0 0.0 0.00 0.00 0.00 90 1013.3
20260510093800 59 246 0.0 0.0 0.00 0.00 0.00 90 1013.2
20260510093701 59 245 0.0 0.0 0.00 0.00 0.00 90 1013.2
20260510093600 59 246 0.0 0.0 0.00 0.00 0.00 90 1013.3
20260510093503 59 246 0.0 0.0 0.00 0.00 0.00 90 1013.2
20260510093302 59 246 0.0 0.0 0.00 0.00 0.00 90 1013.2
20260510093202 59 245 0.0 0.0 0.00 0.00 0.00 90 1013.3
20260510093101 59 246 0.0 0.0 0.00 0.00 0.00 90 1013.2
20260510093001 59 245 0.0 0.0 0.00 0.00 0.00 90 1012.9
20260510092900 59 246 0.0 0.0 0.00 0.00 0.00 90 1013.2
20260510092801 59 246 0.0 0.0 0.00 0.00 0.00 90 1013.2
20260510092700 59 246 0.0 0.0 0.00 0.00 0.00 90 1013.2
20260510092500 59 246 0.0 0.0 0.00 0.00 0.00 90 1013.2
20260510092202 59 246 0.0 0.0 0.00 0.00 0.00 90 1013.2
20260510092100 59 246 0.0 0.0 0.00 0.00 0.00 90 1013.2
20260510092002 59 246 0.0 0.0 0.00 0.00 0.00 90 1013.1
20260510091800 59 246 0.0 0.0 0.00 0.00 0.00 90 1013.2
20260510091700 59 245 0.0 0.0 0.00 0.00 0.00 90 1013.1
20260510091601 59 246 0.0 0.0 0.00 0.00 0.00 90 1013.1
20260510091501 59 245 0.0 0.0 0.00 0.00 0.00 90 1013.1
20260510091401 59 246 0.0 0.0 0.00 0.00 0.00 90 1013.2
20260510091300 59 246 0.0 0.0 0.00 0.00 0.00 90 1013.1
20260510091159 59 246 0.0 0.0 0.00 0.00 0.00 90 1013.0
20260510091100 59 245 0.0 0.0 0.00 0.00 0.00 90 1013.0
20260510091001 59 245 0.0 0.0 0.00 0.00 0.00 90 1013.1
20260510090901 59 245 0.0 0.0 0.00 0.00 0.00 90 1013.0
20260510090801 59 246 0.0 0.0 0.00 0.00 0.00 90 1013.1
20260510090601 59 245 0.0 0.0 0.00 0.00 0.00 90 1013.0
20260510090501 59 245 0.0 0.0 0.00 0.00 0.00 90 1013.1
20260510090200 60 246 0.0 0.0 0.00 0.00 0.00 90 1013.1
20260510090101 60 246 0.0 0.0 0.00 0.00 0.00 90 1012.9
20260510090001 60 246 0.0 0.0 0.00 0.00 0.00 90 1012.6
20260510085902 60 246 0.0 0.0 0.00 0.00 0.00 90 1012.9
20260510085701 60 246 0.0 0.0 0.00 0.00 0.00 90 1013.0
20260510085601 60 246 0.0 0.0 0.00 0.00 0.00 90 1012.8
20260510085501 60 245 0.0 0.0 0.00 0.00 0.00 90 1012.9
20260510085301 60 246 0.0 0.0 0.00 0.00 0.00 90 1012.9
20260510085200 60 245 0.0 0.0 0.00 0.00 0.00 90 1012.8
20260510085101 60 246 0.0 0.0 0.00 0.00 0.00 90 1012.7
20260510085000 60 246 0.0 0.0 0.00 0.00 0.00 90 1012.8
20260510084900 60 246 0.0 0.0 0.00 0.00 0.00 90 1012.8
20260510084801 60 246 0.0 0.0 0.00 0.00 0.00 90 1012.7
20260510084703 60 246 0.0 0.0 0.00 0.00 0.00 90 1012.7
20260510084600 60 246 0.0 0.0 0.00 0.00 0.00 90 1012.7
20260510084501 60 246 0.0 0.0 0.00 0.00 0.00 90 1012.4
20260510084401 60 246 0.0 0.0 0.00 0.00 0.00 90 1012.6
20260510084301 60 248 0.0 0.0 0.00 0.00 0.00 90 1012.6
20260510084201 60 248 0.0 0.0 0.00 0.00 0.00 90 1012.6
20260510084101 60 248 0.0 0.0 0.00 0.00 0.00 90 1012.7
20260510084001 60 248 0.0 0.0 0.00 0.00 0.00 90 1012.6
20260510083800 60 248 0.0 0.0 0.00 0.00 0.00 90 1012.6
20260510083702 60 248 0.0 0.0 0.00 0.00 0.00 90 1012.5
20260510083601 60 248 0.0 0.0 0.00 0.00 0.00 90 1012.7
20260510083501 60 248 0.0 0.0 0.00 0.00 0.00 90 1012.6
20260510083302 60 248 0.0 0.0 0.00 0.00 0.00 90 1012.6
20260510083201 60 248 0.0 0.0 0.00 0.00 0.00 90 1012.6
20260510083101 60 248 0.0 0.0 0.00 0.00 0.00 90 1012.6
20260510083002 60 248 0.0 0.0 0.00 0.00 0.00 90 1012.3
20260510082900 60 248 0.0 0.0 0.00 0.00 0.00 90 1012.6
20260510082800 60 248 0.0 0.0 0.00 0.00 0.00 90 1012.6
20260510082702 60 248 0.0 0.0 0.00 0.00 0.00 90 1012.6
20260510082400 60 248 0.0 0.0 0.00 0.00 0.00 90 1012.8
20260510082306 60 248 0.0 0.0 0.00 0.00 0.00 90 1012.7
20260510082201 60 248 0.0 0.0 0.00 0.00 0.00 90 1012.6
20260510082100 60 248 0.0 0.0 0.00 0.00 0.00 90 1012.6
20260510082000 60 248 0.0 0.0 0.00 0.00 0.00 90 1012.6
20260510081900 60 248 0.0 0.0 0.00 0.00 0.00 90 1012.7
20260510081802 60 248 0.0 0.0 0.00 0.00 0.00 90 1012.6
20260510081700 60 248 0.0 0.0 0.00 0.00 0.00 90 1012.6
20260510081600 60 248 0.0 0.0 0.00 0.00 0.00 90 1012.5
20260510081502 60 248 0.0 0.0 0.00 0.00 0.00 90 1012.3
20260510081401 60 248 0.0 0.0 0.00 0.00 0.00 90 1012.6
20260510081301 60 248 0.0 0.0 0.00 0.00 0.00 90 1012.5
20260510081202 60 248 0.0 0.0 0.00 0.00 0.00 90 1012.5
20260510080900 60 248 0.0 0.0 0.00 0.00 0.00 90 1012.5
20260510080800 60 248 0.0 0.0 0.00 0.00 0.00 90 1012.6
20260510080601 60 248 0.0 0.0 0.00 0.00 0.00 90 1012.6
20260510080501 60 248 0.0 0.0 0.00 0.00 0.00 90 1012.5
20260510080402 60 248 0.0 0.0 0.00 0.00 0.00 90 1012.6
20260510080301 60 248 0.0 0.0 0.00 0.00 0.00 90 1012.5
20260510080201 60 248 0.0 0.0 0.00 0.00 0.00 90 1012.6
20260510080003 60 248 0.0 0.0 0.00 0.00 0.00 90 1012.4
20260510075901 60 248 0.0 0.0 0.00 0.00 0.00 90 1012.6
20260510075801 60 248 0.0 0.0 0.00 0.00 0.00 90 1012.5
20260510075701 60 248 0.0 0.0 0.00 0.00 0.00 90 1012.7
20260510075601 60 246 0.0 0.0 0.00 0.00 0.00 90 1012.6
20260510075502 60 246 0.0 0.0 0.00 0.00 0.00 90 1012.6
20260510075400 60 246 0.0 0.0 0.00 0.00 0.00 90 1012.7
20260510075300 60 246 0.0 0.0 0.00 0.00 0.00 90 1012.7
20260510075200 60 246 0.0 0.0 0.00 0.00 0.00 90 1012.6
20260510075101 60 245 0.0 0.0 0.00 0.00 0.00 90 1012.7
20260510075001 60 246 0.0 0.0 0.00 0.00 0.00 90 1012.7
20260510074900 60 246 0.0 0.0 0.00 0.00 0.00 90 1012.6
20260510074801 60 246 0.0 0.0 0.00 0.00 0.00 90 1012.7
20260510074701 60 246 0.0 0.0 0.00 0.00 0.00 90 1012.7
20260510074602 60 246 0.0 0.0 0.00 0.00 0.00 90 1012.5
20260510074501 60 245 0.0 0.0 0.00 0.00 0.00 90 1012.7
20260510074302 60 246 0.0 0.0 0.00 0.00 0.00 90 1012.8
20260510074200 60 246 0.0 0.0 0.00 0.00 0.00 90 1012.7
20260510074101 60 246 0.0 0.0 0.00 0.00 0.00 90 1012.6
20260510073901 60 245 0.0 0.0 0.00 0.00 0.00 90 1012.6
20260510073801 60 246 0.0 0.0 0.00 0.00 0.00 90 1012.5
20260510073703 60 246 0.0 0.0 0.00 0.00 0.00 90 1012.5
20260510073601 60 246 0.0 0.0 0.00 0.00 0.00 90 1012.4
20260510073500 60 246 0.0 0.0 0.00 0.00 0.00 90 1012.4
20260510073301 60 246 0.0 0.0 0.00 0.00 0.00 90 1012.4
20260510073102 60 246 0.0 0.0 0.00 0.00 0.00 90 1012.3
20260510072900 60 246 0.0 0.0 0.00 0.00 0.00 90 1012.4
20260510072802 60 245 0.0 0.0 0.00 0.00 0.00 90 1012.3
20260510072701 60 246 0.0 0.0 0.00 0.00 0.00 90 1012.4
20260510072601 60 246 0.0 0.0 0.00 0.00 0.00 90 1012.4
20260510072502 60 246 0.0 0.0 0.00 0.00 0.00 90 1012.3
20260510072400 60 246 0.0 0.9 0.00 0.00 0.00 90 1012.4
20260510072300 60 245 0.0 0.9 0.00 0.00 0.00 90 1012.3
20260510072101 60 246 0.0 0.9 0.00 0.00 0.00 90 1012.3
20260510072000 60 246 0.0 0.9 0.00 0.00 0.00 90 1012.3
20260510071901 60 246 0.0 0.9 0.00 0.00 0.00 90 1012.3
20260510071701 60 246 0.0 0.9 0.00 0.00 0.00 90 1012.3
20260510071601 60 246 0.0 0.0 0.00 0.00 0.00 90 1011.9
20260510071502 60 246 0.0 0.0 0.00 0.00 0.00 90 1012.2
20260510071402 60 250 0.0 0.0 0.00 0.00 0.00 90 1012.2
20260510071201 60 252 0.0 0.0 0.00 0.00 0.00 90 1012.3
20260510071001 60 259 0.0 0.0 0.00 0.00 0.00 90 1012.3
20260510070900 60 259 0.0 0.0 0.00 0.00 0.00 90 1012.3
20260510070801 60 259 0.0 0.0 0.00 0.00 0.00 90 1012.3
20260510070602 60 259 0.0 0.0 0.00 0.00 0.00 90 1012.2
20260510070500 60 259 0.0 0.0 0.00 0.00 0.00 90 1012.2
20260510070401 60 259 0.0 0.0 0.00 0.00 0.00 90 1012.2
20260510070302 60 259 0.0 0.0 0.00 0.00 0.00 90 1012.3
20260510070201 60 259 0.0 0.0 0.00 0.00 0.00 90 1012.3
20260510070002 60 259 0.0 0.0 0.00 0.00 0.00 90 1011.9
20260510065901 60 259 0.0 0.0 0.00 0.00 0.00 90 1012.1
20260510065801 60 259 0.0 0.0 0.00 0.00 0.00 90 1012.1
20260510065702 61 259 0.0 0.0 0.00 0.00 0.00 90 1012.1
20260510065601 61 259 0.0 0.0 0.00 0.00 0.00 90 1012.1
20260510065500 61 259 0.0 0.0 0.00 0.00 0.00 90 1012.1
20260510065402 61 259 0.0 0.0 0.00 0.00 0.00 90 1012.1
20260510065305 61 259 0.0 0.0 0.00 0.00 0.00 90 1012.1
20260510065103 61 259 0.0 0.0 0.00 0.00 0.00 90 1012.2
20260510065002 61 259 0.0 0.0 0.00 0.00 0.00 90 1012.2
20260510064901 61 259 0.0 0.0 0.00 0.00 0.00 90 1012.3
20260510064800 61 259 0.0 0.0 0.00 0.00 0.00 90 1012.3
20260510064701 61 259 0.0 0.0 0.00 0.00 0.00 90 1012.3
20260510064602 61 259 0.0 0.0 0.00 0.00 0.00 90 1012.2
20260510064501 61 259 0.0 0.0 0.00 0.00 0.00 90 1012.1
20260510064400 61 259 0.0 0.0 0.00 0.00 0.00 90 1012.2
20260510064301 61 259 0.0 0.0 0.00 0.00 0.00 90 1012.3
20260510064102 61 259 0.0 0.0 0.00 0.00 0.00 90 1012.3
20260510064000 61 259 0.0 0.0 0.00 0.00 0.00 90 1012.3
20260510063900 61 259 0.0 0.0 0.00 0.00 0.00 90 1012.3
20260510063801 61 259 0.0 0.0 0.00 0.00 0.00 90 1012.3
20260510063700 61 259 0.0 0.0 0.00 0.00 0.00 90 1012.3
20260510063500 61 259 0.0 0.0 0.00 0.00 0.00 90 1012.3
20260510063400 61 259 0.0 0.0 0.00 0.00 0.00 90 1012.3
20260510063301 61 259 0.0 0.0 0.00 0.00 0.00 90 1012.3
20260510063202 61 259 0.0 0.0 0.00 0.00 0.00 90 1012.3
20260510063100 61 259 0.0 0.0 0.00 0.00 0.00 90 1012.3
20260510063000 61 259 0.0 0.0 0.00 0.00 0.00 90 1012.2
20260510062901 61 259 0.0 0.0 0.00 0.00 0.00 90 1012.2
20260510062801 61 259 0.0 0.0 0.00 0.00 0.00 90 1012.2
20260510062601 61 259 0.0 0.0 0.00 0.00 0.00 90 1012.2
20260510062501 61 259 0.0 0.0 0.00 0.00 0.00 90 1012.1
20260510062400 61 259 0.0 0.0 0.00 0.00 0.00 90 1012.1
20260510062302 61 259 0.0 0.0 0.00 0.00 0.00 90 1012.1
20260510062201 61 259 0.0 0.0 0.00 0.00 0.00 90 1012.1
20260510062101 61 259 0.0 0.0 0.00 0.00 0.00 90 1012.1
20260510062000 61 259 0.0 0.0 0.00 0.00 0.00 89 1012.1
20260510061901 61 259 0.0 0.0 0.00 0.00 0.00 89 1012.1
20260510061700 61 259 0.0 0.0 0.00 0.00 0.00 89 1012.1
20260510061602 61 259 0.0 0.0 0.00 0.00 0.00 89 1012.2
20260510061501 61 259 0.0 0.0 0.00 0.00 0.00 89 1011.9
20260510061401 61 259 0.0 0.0 0.00 0.00 0.00 89 1012.1
20260510061300 61 259 0.0 0.0 0.00 0.00 0.00 89 1012.2
20260510061202 61 259 0.0 0.0 0.00 0.00 0.00 89 1012.1
20260510061100 61 259 0.0 0.0 0.00 0.00 0.00 89 1012.2
20260510060901 61 259 0.0 0.0 0.00 0.00 0.00 89 1012.2
20260510060801 61 259 0.0 0.0 0.00 0.00 0.00 89 1012.3
20260510060701 61 259 0.0 0.0 0.00 0.00 0.00 89 1012.3
20260510060602 61 259 0.0 0.0 0.00 0.00 0.00 89 1012.3
20260510060501 61 259 0.0 0.0 0.00 0.00 0.00 89 1012.2
20260510060401 61 259 0.0 0.0 0.00 0.00 0.00 89 1012.3
20260510060301 61 259 0.0 0.0 0.00 0.00 0.00 89 1012.3
20260510060202 61 259 0.0 0.0 0.00 0.00 0.00 89 1012.4
20260510060100 61 259 0.0 0.0 0.00 0.00 0.00 89 1012.4
20260510060000 61 259 0.0 0.0 0.00 0.00 0.00 89 1012.4
20260510055801 61 259 0.0 0.0 0.00 0.00 0.00 89 1012.5
20260510055559 61 259 0.0 0.0 0.00 0.00 0.00 89 1012.4
20260510055500 61 259 0.0 0.0 0.00 0.00 0.00 89 1012.6
20260510055400 61 259 0.0 0.0 0.00 0.00 0.00 89 1012.4
20260510055300 61 258 0.0 0.0 0.00 0.00 0.00 89 1012.5
20260510055200 61 259 0.0 0.0 0.00 0.00 0.00 89 1012.5
20260510055059 61 259 0.0 0.0 0.00 0.00 0.00 89 1012.5
20260510055001 61 259 0.0 0.0 0.00 0.00 0.00 89 1012.4
20260510054900 61 259 0.0 0.0 0.00 0.00 0.00 89 1012.5
20260510054759 61 259 0.0 0.0 0.00 0.00 0.00 89 1012.6
20260510054659 61 259 0.0 0.0 0.00 0.00 0.00 89 1012.6
20260510054600 61 259 0.0 0.0 0.00 0.00 0.00 89 1012.2
20260510054500 61 259 0.0 0.0 0.00 0.00 0.00 89 1012.5
20260510054401 61 259 0.0 0.0 0.00 0.00 0.00 89 1012.5
20260510054300 61 259 0.0 0.0 0.00 0.00 0.00 89 1012.5
20260510054201 61 259 0.0 0.0 0.00 0.00 0.00 89 1012.5
20260510054000 61 259 0.0 0.0 0.00 0.00 0.00 89 1012.6
20260510053901 61 259 0.0 0.0 0.00 0.00 0.00 89 1012.5
20260510053800 61 259 0.0 0.0 0.00 0.00 0.00 89 1012.6
20260510053700 61 259 0.0 0.0 0.00 0.00 0.00 89 1012.6
20260510053600 61 258 0.0 0.0 0.00 0.00 0.00 89 1012.6
20260510053459 61 259 0.0 0.0 0.00 0.00 0.00 89 1012.6
20260510053401 61 259 0.0 0.0 0.00 0.00 0.00 89 1012.6
20260510053259 61 259 0.0 0.0 0.00 0.00 0.00 89 1012.7
20260510053159 61 258 0.0 0.0 0.00 0.00 0.00 89 1012.7
20260510053105 61 259 0.0 0.0 0.00 0.00 0.00 89 1012.4
20260510053100 61 259 0.0 0.0 0.00 0.00 0.00 89 1012.7
20260510052959 61 259 0.0 0.0 0.00 0.00 0.00 89 1012.6
20260510052859 61 259 0.0 0.0 0.00 0.00 0.00 89 1012.7
20260510052759 61 259 0.0 0.0 0.00 0.00 0.00 89 1012.7
20260510052700 61 259 0.0 0.0 0.00 0.00 0.00 89 1012.7
20260510052600 61 258 0.0 0.0 0.00 0.00 0.00 89 1012.6
20260510052459 61 259 0.0 0.0 0.00 0.00 0.00 89 1012.9
20260510052401 61 259 0.0 0.0 0.00 0.00 0.00 89 1012.6
20260510052259 61 259 0.0 0.0 0.00 0.00 0.00 89 1012.8
20260510052159 61 259 0.0 0.0 0.00 0.00 0.00 89 1012.7
20260510052059 61 259 0.0 0.0 0.00 0.00 0.00 89 1012.7
20260510051959 61 259 0.0 0.0 0.00 0.00 0.00 89 1012.7
20260510051859 61 258 0.0 0.0 0.00 0.00 0.00 89 1012.7
20260510051759 61 259 0.0 0.0 0.00 0.00 0.00 89 1012.7
20260510051659 61 259 0.0 0.0 0.00 0.00 0.00 89 1012.7
20260510051601 61 259 0.0 0.0 0.00 0.00 0.00 89 1012.7
20260510051500 61 257 0.0 0.0 0.00 0.00 0.00 89 1012.8
20260510051400 61 257 0.0 0.0 0.00 0.00 0.00 89 1012.7
20260510051259 61 257 0.0 0.0 0.00 0.00 0.00 89 1012.7
20260510051200 61 257 0.0 0.0 0.00 0.00 0.00 89 1012.7
20260510051059 61 257 0.0 0.0 0.00 0.00 0.00 89 1012.8
20260510051000 61 257 0.0 0.0 0.00 0.00 0.00 89 1012.8
20260510050900 61 257 0.0 0.0 0.00 0.00 0.00 89 1013.0
20260510050759 61 257 0.0 0.0 0.00 0.00 0.00 89 1012.7
20260510050659 61 257 0.0 0.0 0.00 0.00 0.00 89 1012.8
20260510050600 61 257 0.0 0.0 0.00 0.00 0.00 89 1013.0
20260510050500 61 257 0.0 0.0 0.00 0.00 0.00 89 1012.9
20260510050359 61 257 0.0 0.0 0.00 0.00 0.00 89 1012.9
20260510050300 61 257 0.0 0.0 0.00 0.00 0.00 89 1013.0
20260510050200 61 257 0.0 0.0 0.00 0.00 0.00 89 1013.0
20260510050059 61 257 0.0 0.0 0.00 0.00 0.00 89 1012.9
20260510050004 61 257 0.0 0.0 0.00 0.00 0.00 89 1012.6
20260510050002 61 257 0.0 0.0 0.00 0.00 0.00 89 1012.9
20260510045900 61 257 0.0 0.0 0.00 0.00 0.00 89 1012.9
20260510045800 61 257 0.0 0.0 0.00 0.00 0.00 89 1012.8
20260510045602 61 257 0.0 0.0 0.00 0.00 0.00 89 1012.8
20260510045500 61 257 0.0 0.0 0.00 0.00 0.00 89 1012.8
20260510045400 61 257 0.0 0.0 0.00 0.00 0.00 89 1012.8
20260510045301 61 257 0.0 0.0 0.00 0.00 0.00 89 1012.8
20260510045200 61 257 0.0 0.0 0.00 0.00 0.00 89 1012.9
20260510045101 61 257 0.0 0.0 0.00 0.00 0.00 89 1012.8
20260510045001 61 257 0.0 0.0 0.00 0.00 0.00 89 1012.8
20260510044901 61 257 0.0 0.0 0.00 0.00 0.00 89 1012.9
20260510044801 62 257 0.0 0.0 0.00 0.00 0.00 89 1013.0
20260510044602 62 257 0.0 0.0 0.00 0.00 0.00 89 1013.1
20260510044500 61 257 0.0 0.0 0.00 0.00 0.00 89 1013.1
20260510044403 61 257 0.0 0.0 0.00 0.00 0.00 89 1013.1
20260510044300 61 257 0.0 0.0 0.00 0.00 0.00 89 1013.1
20260510044201 61 259 0.0 0.0 0.00 0.00 0.00 89 1012.9
20260510043900 61 259 0.0 0.0 0.00 0.00 0.00 89 1013.0
20260510043801 61 259 0.0 0.0 0.00 0.00 0.00 89 1013.0
20260510043700 61 259 0.0 0.0 0.00 0.00 0.00 89 1012.9
20260510043300 61 258 0.0 0.0 0.00 0.00 0.00 89 1012.9
20260510043203 61 259 0.0 0.0 0.00 0.00 0.00 89 1012.9
20260510043106 61 259 0.0 0.0 0.00 0.00 0.00 89 1012.6
20260510043101 61 258 0.0 0.0 0.00 0.00 0.00 89 1012.9
20260510043000 61 259 0.0 0.0 0.00 0.00 0.00 89 1012.8
20260510042900 61 259 0.0 0.0 0.00 0.00 0.00 89 1012.8
20260510042800 61 259 0.0 0.0 0.00 0.00 0.00 89 1012.8
20260510042701 61 259 0.0 0.0 0.00 0.00 0.00 89 1012.9
20260510042600 61 259 0.0 0.0 0.00 0.00 0.00 89 1012.9
20260510042501 61 259 0.0 0.0 0.00 0.00 0.00 89 1012.8
20260510042300 62 259 0.0 0.0 0.00 0.00 0.00 89 1012.9
20260510042200 62 259 0.0 0.0 0.00 0.00 0.00 89 1012.8
20260510042001 62 259 0.0 0.0 0.00 0.00 0.00 89 1012.7
20260510041901 62 259 0.0 0.0 0.00 0.00 0.00 89 1012.6
20260510041800 62 259 0.0 0.0 0.00 0.00 0.00 89 1012.7
20260510041701 62 259 0.0 0.0 0.00 0.00 0.00 89 1012.8
20260510041601 62 259 0.0 0.0 0.00 0.00 0.00 89 1012.7
20260510041502 62 259 0.0 0.0 0.00 0.00 0.00 89 1012.5
20260510041300 62 258 0.0 0.0 0.00 0.00 0.00 89 1012.8
20260510041201 62 259 0.0 0.0 0.00 0.00 0.00 89 1012.8
20260510041101 62 259 0.0 0.0 0.00 0.00 0.00 89 1012.8
20260510041002 62 259 0.0 0.0 0.00 0.00 0.00 89 1012.8
20260510040701 62 259 0.0 0.0 0.00 0.00 0.00 88 1012.8
20260510040601 62 259 0.0 0.0 0.00 0.00 0.00 88 1013.0
20260510040502 62 259 0.0 0.0 0.00 0.00 0.00 88 1013.0
20260510040401 62 259 0.0 0.0 0.00 0.00 0.00 88 1012.8
20260510040302 62 259 0.0 0.0 0.00 0.00 0.00 88 1012.8
20260510040205 62 259 0.0 0.0 0.00 0.00 0.00 88 1012.8
20260510040009 62 259 0.0 0.0 0.00 0.00 0.00 88 1012.6
20260510035804 62 259 0.0 0.0 0.00 0.00 0.00 88 1012.8
20260510035703 62 259 0.0 0.0 0.00 0.00 0.00 88 1012.9
20260510035603 62 259 0.0 0.0 0.00 0.00 0.00 88 1012.7
20260510035404 62 259 0.0 0.0 0.00 0.00 0.00 88 1012.8
20260510035306 62 259 0.0 0.0 0.00 0.00 0.00 88 1012.8
20260510035003 62 259 0.0 0.0 0.00 0.00 0.00 88 1012.8
20260510034803 62 259 0.0 0.0 0.00 0.00 0.00 88 1012.9
20260510034703 62 259 0.0 0.0 0.00 0.00 0.00 88 1012.8
20260510034603 62 259 0.0 0.0 0.00 0.00 0.00 88 1012.9
20260510034503 62 259 0.0 0.0 0.00 0.00 0.00 88 1012.8
20260510034403 62 259 0.0 0.0 0.00 0.00 0.00 88 1012.8
20260510034303 62 259 0.0 0.0 0.00 0.00 0.00 88 1012.9
20260510034204 62 259 0.0 0.0 0.00 0.00 0.00 88 1012.9
20260510034104 62 259 0.0 0.0 0.00 0.00 0.00 88 1012.8
20260510033905 62 259 0.0 0.0 0.00 0.00 0.00 88 1012.8
20260510033604 62 259 0.0 0.0 0.00 0.00 0.00 88 1012.8
20260510033504 62 257 0.0 0.0 0.00 0.00 0.00 88 1012.7
20260510033403 62 257 0.0 0.0 0.00 0.00 0.00 88 1012.8
20260510033204 62 257 0.0 0.0 0.00 0.00 0.00 88 1012.7
20260510033103 62 257 0.0 0.0 0.00 0.00 0.00 88 1012.7
20260510033003 62 257 0.0 0.0 0.00 0.00 0.00 88 1012.8
20260510032804 62 257 0.0 0.0 0.00 0.00 0.00 88 1012.8
20260510032704 62 257 0.0 0.0 0.00 0.00 0.00 88 1012.7
20260510032603 62 257 0.0 0.0 0.00 0.00 0.00 88 1012.7
20260510032504 62 257 0.0 0.0 0.00 0.00 0.00 88 1012.9
20260510032306 62 257 0.0 0.0 0.00 0.00 0.00 88 1012.7
20260510032203 62 257 0.0 0.0 0.00 0.00 0.00 88 1012.7
20260510032106 62 257 0.0 0.0 0.00 0.00 0.00 88 1012.7
20260510032006 62 257 0.0 0.0 0.00 0.00 0.00 88 1012.7
20260510031904 62 257 0.0 0.0 0.00 0.00 0.00 88 1012.7
20260510031803 62 257 0.0 0.0 0.00 0.00 0.00 88 1012.7
20260510031705 62 257 0.0 0.0 0.00 0.00 0.00 88 1012.6
20260510031603 63 257 0.0 0.0 0.00 0.00 0.00 88 1012.7
20260510031510 62 257 0.0 0.0 0.00 0.00 0.00 88 1012.5
20260510031503 62 257 0.0 0.0 0.00 0.00 0.00 88 1012.7
20260510031407 63 257 0.0 0.0 0.00 0.00 0.00 88 1012.8
20260510031303 63 257 0.0 0.0 0.00 0.00 0.00 88 1012.7
20260510031205 63 257 0.0 0.0 0.00 0.00 0.00 88 1012.7
20260510031103 63 257 0.0 0.0 0.00 0.00 0.00 88 1012.7
20260510031003 63 257 0.0 0.0 0.00 0.00 0.00 88 1012.8
20260510030903 63 257 0.0 0.0 0.00 0.00 0.00 88 1012.8
20260510030804 63 257 0.0 0.0 0.00 0.00 0.00 88 1012.9
20260510030703 63 257 0.0 0.0 0.00 0.00 0.00 88 1012.8
20260510030603 63 257 0.0 0.0 0.00 0.00 0.00 88 1012.8
20260510030503 63 257 0.0 0.0 0.00 0.00 0.00 88 1012.7
20260510030404 63 257 0.0 0.0 0.00 0.00 0.00 87 1012.8
20260510030304 63 257 0.0 0.0 0.00 0.00 0.00 87 1012.8
20260510030203 63 257 0.0 0.0 0.00 0.00 0.00 87 1012.7
20260510030005 63 257 0.0 0.0 0.00 0.00 0.00 87 1012.7
20260510025903 63 257 0.0 0.0 0.00 0.00 0.00 87 1012.6
20260510025803 63 257 0.0 0.0 0.00 0.00 0.00 87 1012.7
20260510025703 63 257 0.0 0.0 0.00 0.00 0.00 87 1012.7
20260510025603 63 257 0.0 0.0 0.00 0.00 0.00 87 1012.7
20260510025504 63 257 0.0 0.0 0.00 0.00 0.00 87 1012.7
20260510025404 63 257 0.0 0.0 0.00 0.00 0.00 87 1012.7
20260510025306 63 257 0.0 0.0 0.00 0.00 0.00 87 1012.6
20260510025204 63 257 0.0 0.0 0.00 0.00 0.00 87 1012.7
20260510025104 63 257 0.0 0.0 0.00 0.00 0.00 87 1012.6
20260510025003 63 257 0.0 0.0 0.00 0.00 0.00 87 1012.6
20260510024804 63 257 0.0 0.0 0.00 0.00 0.00 87 1012.6
20260510024604 63 257 0.0 0.0 0.00 0.00 0.00 87 1012.5
20260510024505 63 257 0.0 0.0 0.00 0.00 0.00 87 1012.4
20260510024404 63 259 0.0 0.0 0.00 0.00 0.00 87 1012.6
20260510024104 63 259 0.0 0.0 0.00 0.00 0.00 86 1012.6
20260510024003 63 259 0.0 0.0 0.00 0.00 0.00 86 1012.7
20260510023804 63 259 0.0 0.0 0.00 0.00 0.00 86 1012.6
20260510023704 63 259 0.0 0.0 0.00 0.00 0.00 86 1012.6
20260510023605 63 259 0.0 0.0 0.00 0.00 0.00 86 1012.6
20260510023503 63 259 0.0 0.0 0.00 0.00 0.00 86 1012.7
20260510023304 64 259 0.0 0.0 0.00 0.00 0.00 86 1012.6
20260510023203 64 259 0.0 0.0 0.00 0.00 0.00 86 1012.6
20260510023105 64 259 0.0 0.0 0.00 0.00 0.00 86 1012.6
20260510023006 64 259 0.0 0.0 0.00 0.00 0.00 86 1012.4
20260510023003 64 259 0.0 0.0 0.00 0.00 0.00 86 1012.6
20260510022904 64 259 0.0 0.0 0.00 0.00 0.00 86 1012.7
20260510022803 64 259 0.0 0.9 0.00 0.00 0.00 86 1012.7
20260510022705 64 259 0.0 0.9 0.00 0.00 0.00 86 1012.7
20260510022604 64 259 0.0 0.9 0.00 0.00 0.00 86 1012.6
20260510022503 64 259 0.0 0.9 0.00 0.00 0.00 86 1012.7
20260510022404 64 259 0.0 0.9 0.00 0.00 0.00 86 1012.6
20260510022306 64 259 0.0 0.9 0.00 0.00 0.00 86 1012.6
20260510022204 64 259 0.0 0.9 0.00 0.00 0.00 86 1012.5
20260510022103 64 259 0.0 0.9 0.00 0.00 0.00 86 1012.6
20260510022005 64 259 0.0 0.9 0.00 0.00 0.00 86 1012.6
20260510021803 64 259 0.0 0.0 0.00 0.00 0.00 86 1012.5
20260510021703 64 257 0.0 0.0 0.00 0.00 0.00 86 1012.5
20260510021604 64 257 0.0 0.0 0.00 0.00 0.00 86 1012.5
20260510021517 64 257 0.0 0.0 0.00 0.00 0.00 85 1012.2
20260510021504 64 257 0.0 0.0 0.00 0.00 0.00 85 1012.5
20260510021403 64 257 0.0 0.0 0.00 0.00 0.00 85 1012.4
20260510021304 64 257 0.0 0.0 0.00 0.00 0.00 85 1012.4
20260510021203 64 257 0.0 0.0 0.00 0.00 0.00 85 1012.5
20260510021105 64 257 0.0 0.0 0.00 0.00 0.00 85 1012.5
20260510020903 64 257 0.0 0.0 0.00 0.00 0.00 85 1012.5
20260510020803 64 257 0.0 0.0 0.00 0.00 0.00 85 1012.5
20260510020605 64 257 0.0 0.0 0.00 0.00 0.00 85 1012.5
20260510020503 64 257 0.0 0.0 0.00 0.00 0.00 85 1012.6
20260510020403 64 257 0.0 0.0 0.00 0.00 0.00 85 1012.5
20260510020203 64 257 0.0 0.0 0.00 0.00 0.00 85 1012.5
20260510020104 64 257 0.0 0.0 0.00 0.00 0.00 85 1012.5
20260510020003 64 257 0.0 0.0 0.00 0.00 0.00 85 1012.6
20260510015902 64 257 0.0 0.0 0.00 0.00 0.00 85 1012.4
20260510015802 64 257 0.0 0.0 0.00 0.00 0.00 85 1012.5
20260510015702 65 257 0.0 0.0 0.00 0.00 0.00 85 1012.4
20260510015603 65 257 0.0 0.0 0.00 0.00 0.00 85 1012.4
20260510015503 65 257 0.0 0.0 0.00 0.00 0.00 85 1012.3
20260510015403 65 257 0.0 0.0 0.00 0.00 0.00 85 1012.4
20260510015306 65 257 0.0 0.0 0.00 0.00 0.00 85 1012.3
20260510015202 65 257 0.0 0.0 0.00 0.00 0.00 85 1012.2
20260510015103 65 257 0.0 0.0 0.00 0.00 0.00 85 1012.3
20260510014902 65 257 0.0 0.0 0.00 0.00 0.00 85 1012.2
20260510014803 65 257 0.0 0.0 0.00 0.00 0.00 85 1012.2
20260510014702 65 257 0.0 0.0 0.00 0.00 0.00 85 1012.1
20260510014603 65 257 0.0 0.0 0.00 0.00 0.00 85 1012.1
20260510014506 65 257 0.0 0.0 0.00 0.00 0.00 85 1011.9
20260510014502 65 257 0.0 0.0 0.00 0.00 0.00 85 1012.1
20260510014402 65 257 0.0 0.0 0.00 0.00 0.00 85 1012.1
20260510014303 65 257 0.0 0.0 0.00 0.00 0.00 85 1012.2
20260510014202 65 257 0.0 0.0 0.00 0.00 0.00 85 1011.9
20260510014102 65 257 0.0 0.0 0.00 0.00 0.00 85 1012.1
20260510014003 65 257 0.0 0.0 0.00 0.00 0.00 85 1012.1
20260510013803 65 257 0.0 0.0 0.00 0.00 0.00 85 1012.0
20260510013703 65 257 0.0 0.0 0.00 0.00 0.00 84 1012.0
20260510013503 65 257 0.0 0.0 0.00 0.00 0.00 84 1012.0
20260510013404 65 258 0.0 0.0 0.00 0.00 0.00 84 1011.9
20260510013303 65 257 0.0 0.0 0.00 0.00 0.00 84 1011.9
20260510013203 65 257 0.0 0.0 0.00 0.00 0.00 84 1011.8
20260510013103 65 257 0.0 0.0 0.00 0.00 0.00 84 1011.8
20260510013002 65 257 0.0 0.0 0.00 0.00 0.00 84 1011.8
20260510012902 65 257 0.0 0.0 0.00 0.00 0.00 84 1011.7
20260510012802 65 257 0.0 0.0 0.00 0.00 0.00 84 1011.8
20260510012702 65 257 0.0 0.0 0.00 0.00 0.00 84 1011.6
20260510012602 65 257 0.0 0.0 0.00 0.00 0.00 84 1011.7
20260510012402 65 257 0.0 0.0 0.00 0.00 0.00 84 1011.7
20260510012306 65 257 0.0 0.0 0.00 0.00 0.00 84 1011.7
20260510012202 65 257 0.0 0.0 0.00 0.00 0.00 84 1011.7
20260510012103 65 257 0.0 0.0 0.00 0.00 0.00 84 1011.6
20260510011902 66 259 0.0 0.0 0.00 0.00 0.00 84 1011.6
20260510011803 66 259 0.0 0.0 0.00 0.00 0.00 84 1011.6
20260510011703 66 259 0.0 0.0 0.00 0.00 0.00 84 1011.6
20260510011503 66 257 0.0 0.0 0.00 0.00 0.00 84 1011.6
20260510011402 66 257 0.0 0.0 0.00 0.00 0.00 83 1011.5
20260510011302 66 257 0.0 0.0 0.00 0.00 0.00 83 1011.5
20260510011202 66 257 0.0 0.0 0.00 0.00 0.00 83 1011.5
20260510011103 66 257 0.0 0.0 0.00 0.00 0.00 83 1011.5
20260510011002 66 257 0.0 0.0 0.00 0.00 0.00 83 1011.5
20260510010904 66 257 0.0 0.0 0.00 0.00 0.00 82 1011.6
20260510010804 66 257 0.0 0.0 0.00 0.00 0.00 82 1011.6
20260510010603 66 257 0.0 0.0 0.00 0.00 0.00 82 1011.5
20260510010502 66 257 0.0 0.0 0.00 0.00 0.00 82 1011.4
20260510010404 66 257 0.0 0.0 0.00 0.00 0.00 82 1011.5
20260510010303 66 257 0.0 0.0 0.00 0.00 0.00 82 1011.4
20260510010202 66 257 0.0 0.0 0.00 0.00 0.00 82 1011.4
20260510010003 66 257 0.0 0.0 0.00 0.00 0.00 82 1011.0
20260510005903 66 258 0.0 0.0 0.00 0.00 0.00 82 1011.5
20260510005802 66 257 0.0 0.0 0.00 0.00 0.00 82 1011.4
20260510005704 66 257 0.0 0.0 0.00 0.00 0.00 82 1011.4
20260510005603 66 257 0.0 0.0 0.00 0.00 0.00 82 1011.3
20260510005502 66 257 0.0 0.0 0.00 0.00 0.00 82 1011.4
20260510005403 66 257 0.0 0.0 0.00 0.00 0.00 81 1011.3
20260510005202 67 257 0.0 0.0 0.00 0.00 0.00 82 1011.3
20260510005102 67 257 0.0 0.0 0.00 0.00 0.00 82 1011.4
20260510005003 67 257 0.0 0.0 0.00 0.00 0.00 81 1011.4
20260510004903 67 257 0.0 0.0 0.00 0.00 0.00 81 1011.3
20260510004803 67 257 0.0 0.0 0.00 0.00 0.00 81 1011.4
20260510004703 67 257 0.0 0.0 0.00 0.00 0.00 81 1011.3
20260510004601 67 257 0.0 0.0 0.00 0.00 0.00 81 1011.3
20260510004502 67 257 0.0 0.0 0.00 0.00 0.00 80 1011.4
20260510004403 67 257 0.0 0.0 0.00 0.00 0.00 80 1011.3
20260510004302 67 257 0.0 0.0 0.00 0.00 0.00 80 1011.3
20260510004202 67 257 0.0 0.0 0.00 0.00 0.00 80 1011.4
20260510004102 67 257 0.0 0.0 0.00 0.00 0.00 80 1011.2
20260510004005 67 257 0.0 0.0 0.00 0.00 0.00 80 1011.3
20260510003903 67 257 0.0 0.0 0.00 0.00 0.00 80 1011.3
20260510003802 67 257 0.0 0.0 0.00 0.00 0.00 80 1011.3
20260510003703 67 257 0.0 0.0 0.00 0.00 0.00 80 1011.3
20260510003602 67 257 0.0 0.0 0.00 0.00 0.00 80 1011.4
20260510003502 67 257 0.0 0.0 0.00 0.00 0.00 79 1011.4
20260510003403 67 257 0.0 0.0 0.00 0.00 0.00 79 1011.4
20260510003202 68 257 0.0 0.0 0.00 0.00 0.00 79 1011.3
20260510003103 68 257 0.0 0.0 0.00 0.00 0.00 79 1011.4
20260510003003 68 257 0.0 0.0 0.00 0.00 0.00 79 1011.1
20260510002802 68 257 0.0 0.0 0.00 0.00 0.00 79 1011.3
20260510002703 68 257 0.0 0.0 0.00 0.00 0.00 79 1011.3
20260510002603 68 257 0.0 0.0 0.00 0.00 0.00 79 1011.4
20260510002504 68 257 0.0 0.0 0.00 0.00 0.00 79 1011.4
20260510002404 68 257 0.0 0.0 0.00 0.00 0.00 79 1011.4
20260510002306 68 257 0.0 0.0 0.00 0.00 0.00 79 1011.3
20260510002102 68 257 0.0 0.0 0.00 0.00 0.00 78 1011.3
20260510002002 68 257 0.0 0.0 0.00 0.00 0.00 78 1011.3
20260510001903 68 257 0.0 0.0 0.00 0.00 0.00 78 1011.2
20260510001802 68 257 0.0 0.0 0.00 0.00 0.00 78 1011.3
20260510001702 68 257 0.0 0.0 0.00 0.00 0.00 78 1011.3
20260510001603 68 257 0.0 0.0 0.00 0.00 0.00 78 1011.3
20260510001503 68 257 0.0 0.0 0.00 0.00 0.00 78 1011.0
20260510001413 68 257 0.0 0.0 0.00 0.00 0.00 78 1011.2
20260510001302 69 257 0.0 0.0 0.00 0.00 0.00 78 1011.4
20260510001103 69 257 0.0 0.0 0.00 0.00 0.00 78 1011.3
20260510001004 69 257 0.0 0.0 0.00 0.00 0.00 78 1011.4
20260510000903 69 257 0.0 0.0 0.00 0.00 0.00 78 1011.2
20260510000802 69 257 0.0 0.0 0.00 0.00 0.00 78 1011.4
20260510000703 69 257 0.0 0.0 0.00 0.00 0.00 77 1011.3
20260510000602 69 257 0.0 0.0 0.00 0.00 0.00 77 1011.3
20260510000503 69 257 0.0 0.0 0.00 0.00 0.00 76 1011.2
20260510000403 69 257 0.0 0.0 0.00 0.00 0.00 76 1011.2
20260510000306 69 257 0.0 0.0 0.00 0.00 0.00 76 1011.1
20260510000204 69 257 0.0 0.0 0.00 0.00 0.00 76 1011.1
20260510000103 69 257 0.0 0.0 0.00 0.00 0.00 76 1011.1
20260510000007 69 257 0.0 0.0 0.00 0.00 0.00 76 1010.8
20260509235912 69 257 0.0 0.0 0.00 0.00 0.00 76 1011.1
20260509235813 69 257 0.0 0.0 0.00 0.00 0.00 76 1011.1
20260509235502 70 257 0.0 0.0 0.00 0.00 0.00 76 1011.1
20260509235407 70 257 0.0 0.0 0.00 0.00 0.00 76 1011.1
20260509235307 70 257 0.0 0.0 0.00 0.00 0.00 76 1011.2
20260509235204 70 257 0.0 0.0 0.00 0.00 0.00 75 1011.1
20260509235104 70 257 0.0 0.0 0.00 0.00 0.00 75 1011.0
20260509234905 70 257 0.0 0.0 0.00 0.00 0.00 75 1011.1
20260509234604 70 257 0.0 0.0 0.00 0.00 0.00 75 1011.0
20260509234504 70 257 0.0 0.0 0.00 0.00 0.00 75 1010.8
20260509234404 70 257 0.0 0.0 0.00 0.00 0.00 75 1010.8
20260509234203 70 257 0.0 0.0 0.00 0.00 0.00 75 1010.7
20260509234103 70 257 0.0 0.0 0.00 0.00 0.00 75 1010.6
20260509233903 70 257 0.0 0.0 0.00 0.00 0.00 74 1010.7
20260509233803 70 257 0.0 0.0 0.00 0.00 0.00 74 1010.6
20260509233706 70 257 0.0 0.0 0.00 0.00 0.00 74 1010.6
20260509233603 70 257 0.0 0.0 0.00 0.00 0.00 75 1010.7
20260509233504 71 257 0.0 0.0 0.00 0.00 0.00 74 1010.6
20260509233405 71 257 0.0 0.0 0.00 0.00 0.00 74 1010.6
20260509233304 71 257 0.0 0.0 0.00 0.00 0.00 74 1010.5
20260509233203 71 257 0.0 0.0 0.00 0.00 0.00 74 1010.7
20260509233104 71 257 0.0 0.0 0.00 0.00 0.00 74 1010.6
20260509233004 71 257 0.0 0.0 0.00 0.00 0.00 74 1010.4
20260509232904 71 257 0.0 0.0 0.00 0.00 0.00 74 1010.7
20260509232805 71 257 0.0 0.9 0.00 0.00 0.00 73 1010.7
20260509232603 71 257 0.0 0.9 0.00 0.00 0.00 73 1010.7
20260509232504 71 257 0.0 0.9 0.00 0.00 0.00 73 1010.7
20260509232403 71 257 0.0 0.9 0.00 0.00 0.00 73 1010.6
20260509232312 71 258 0.0 0.9 0.00 0.00 0.00 73 1010.6
20260509230905 72 250 0.0 0.9 0.00 0.00 0.00 71 1010.4
20260509230803 72 248 0.0 0.9 0.00 0.00 0.00 71 1010.4
20260509230703 72 243 0.0 1.7 0.00 0.00 0.00 71 1010.5
20260509230604 72 246 0.0 1.7 0.00 0.00 0.00 71 1010.4
20260509230504 72 246 0.0 2.6 0.00 0.00 0.00 71 1010.5
20260509230430 72 246 0.0 2.6 0.00 0.00 0.00 71 1010.5
20260509230314 72 246 0.0 2.6 0.00 0.00 0.00 71 1010.4
20260509230205 72 246 0.0 2.6 0.00 0.00 0.00 71 1010.4
20260509230104 72 246 0.0 2.6 0.00 0.00 0.00 70 1010.4
20260509230007 72 246 0.0 2.6 0.00 0.00 0.00 70 1010.2
20260509225804 72 281 0.0 2.6 0.00 0.00 0.00 70 1010.4
20260509225703 72 243 0.0 0.9 0.00 0.00 0.00 71 1010.4
20260509225603 72 240 0.0 0.9 0.00 0.00 0.00 71 1010.4
20260509225502 72 247 0.0 0.9 0.00 0.00 0.00 71 1010.4
20260509225305 72 246 0.0 1.7 0.00 0.00 0.00 70 1010.2
20260509225203 72 247 0.0 1.7 0.00 0.00 0.00 70 1010.3
20260509225102 72 256 0.0 1.7 0.00 0.00 0.00 70 1010.4
20260509225002 72 263 0.9 1.7 0.00 0.00 0.00 70 1010.3
20260509224902 72 260 0.9 1.7 0.00 0.00 0.00 70 1010.4
20260509224602 72 237 0.0 1.7 0.00 0.00 0.00 70 1010.2
20260509224504 72 259 0.0 1.7 0.00 0.00 0.00 70 1010.1
20260509224403 73 259 0.0 1.7 0.00 0.00 0.00 70 1010.2
20260509224202 73 286 0.0 1.7 0.00 0.00 0.00 70 1010.2
20260509224102 73 282 0.0 1.7 0.00 0.00 0.00 69 1010.2
20260509224002 73 246 0.0 1.7 0.00 0.00 0.00 69 1010.3
20260509223904 73 262 0.0 1.7 0.00 0.00 0.00 69 1010.3
20260509223603 73 255 0.0 0.9 0.00 0.00 0.00 68 1010.3
20260509223502 73 330 0.0 1.7 0.00 0.00 0.00 68 1010.2
20260509223402 74 347 0.0 1.7 0.00 0.00 0.00 69 1010.2
20260509223301 74 247 0.0 1.7 0.00 0.00 0.00 69 1010.2
20260509223202 74 264 0.0 1.7 0.00 0.00 0.00 69 1010.3
20260509223102 74 264 0.0 1.7 0.00 0.00 0.00 69 1010.3
20260509223003 74 255 0.0 1.7 0.00 0.00 0.00 68 1010.2
20260509222902 74 257 0.9 1.7 0.00 0.00 0.00 68 1010.5
20260509222704 74 238 0.9 1.7 0.00 0.00 0.00 68 1010.5
20260509222602 74 183 0.9 2.6 0.00 0.00 0.00 69 1010.6
20260509222502 74 152 0.9 2.6 0.00 0.00 0.00 68 1010.5
20260509222204 75 256 0.0 2.6 0.00 0.00 0.00 67 1010.4
20260509222103 75 245 0.0 2.6 0.00 0.00 0.00 67 1010.4
20260509222002 75 255 0.0 2.6 0.00 0.00 0.00 66 1010.5
20260509221902 75 243 0.0 2.6 0.00 0.00 0.00 66 1010.4
20260509221604 75 148 0.0 2.6 0.00 0.00 0.00 68 1010.5
20260509221502 75 148 0.0 2.6 0.00 0.00 0.00 68 1010.2
20260509221402 75 146 0.9 2.6 0.00 0.00 0.00 69 1010.3
20260509221102 74 253 0.9 3.5 0.00 0.00 0.00 69 1010.3
20260509221003 74 250 0.9 3.5 0.00 0.00 0.00 67 1010.3
20260509220803 74 290 0.9 3.5 0.00 0.00 0.00 68 1010.4
20260509220704 74 265 0.9 3.5 0.00 0.00 0.00 67 1010.2
20260509220603 74 282 0.9 3.5 0.00 0.00 0.00 66 1010.3
20260509220502 74 242 0.9 3.5 0.00 0.00 0.00 66 1010.3
20260509220402 74 246 0.9 4.3 0.00 0.00 0.00 67 1010.4
20260509220202 74 154 0.9 5.2 0.00 0.00 0.00 67 1010.3
20260509220008 74 200 0.0 5.2 0.00 0.00 0.00 68 1010.1
20260509220005 74 200 0.9 5.2 0.00 0.00 0.00 68 1010.3
20260509215804 74 253 0.9 5.2 0.00 0.00 0.00 68 1010.3
20260509215704 74 250 0.9 5.2 0.00 0.00 0.00 67 1010.3
20260509215604 74 252 0.9 5.2 0.00 0.00 0.00 67 1010.3
20260509215505 74 249 0.9 5.2 0.00 0.00 0.00 67 1010.4
20260509215404 74 152 0.9 4.3 0.00 0.00 0.00 67 1010.3
20260509215306 74 270 0.9 4.3 0.00 0.00 0.00 67 1010.4
20260509215104 74 239 0.9 4.3 0.00 0.00 0.00 67 1010.4
20260509215005 74 270 0.9 4.3 0.00 0.00 0.00 67 1010.4
20260509214903 74 233 0.9 2.6 0.00 0.00 0.00 68 1010.4
20260509214805 74 253 0.9 2.6 0.00 0.00 0.00 68 1010.4
20260509214703 74 274 0.9 2.6 0.00 0.00 0.00 68 1010.4
20260509214602 74 274 0.9 2.6 0.00 0.00 0.00 68 1010.3
20260509214504 74 274 0.0 2.6 0.00 0.00 0.00 68 1010.1
20260509214404 74 257 0.9 2.6 0.00 0.00 0.00 67 1010.3
20260509214303 74 253 0.0 2.6 0.00 0.00 0.00 68 1010.3
20260509214203 74 288 0.0 2.6 0.00 0.00 0.00 68 1010.3
20260509214004 74 233 0.0 3.5 0.00 0.00 0.00 69 1010.4
20260509213904 73 237 0.0 0.9 0.00 0.00 0.00 69 1010.3
20260509213803 73 235 0.9 2.6 0.00 0.00 0.00 69 1010.4
20260509213703 73 235 0.9 2.6 0.00 0.00 0.00 69 1010.3
20260509213603 73 235 0.9 3.5 0.00 0.00 0.00 69 1010.3
20260509213402 73 249 0.9 3.5 0.00 0.00 0.00 69 1010.5
20260509213303 73 248 0.9 4.3 0.00 0.00 0.00 68 1010.5
20260509213103 73 248 1.7 4.3 0.00 0.00 0.00 68 1010.4
20260509213008 74 257 1.7 4.3 0.00 0.00 0.00 67 1010.2
20260509213004 74 257 1.7 4.3 0.00 0.00 0.00 67 1010.4
20260509212705 74 231 0.9 4.3 0.00 0.00 0.00 67 1010.3
20260509212603 74 256 0.9 4.3 0.00 0.00 0.00 66 1010.2
20260509212505 74 248 0.9 5.2 0.00 0.00 0.00 66 1010.2
20260509212403 74 246 0.9 4.3 0.00 0.00 0.00 67 1010.2
20260509212305 74 251 0.9 2.6 0.00 0.00 0.00 67 1010.1
20260509212204 74 250 0.9 2.6 0.00 0.00 0.00 68 1010.1
20260509212105 74 250 0.9 1.7 0.00 0.00 0.00 67 1010.1
20260509212003 74 251 0.9 2.6 0.00 0.00 0.00 68 1010.3
20260509211904 74 243 0.9 2.6 0.00 0.00 0.00 68 1010.3
20260509211805 74 229 0.9 4.3 0.00 0.00 0.00 67 1010.1
20260509211703 74 245 0.9 4.3 0.00 0.00 0.00 68 1010.2
20260509211605 73 248 0.9 4.3 0.00 0.00 0.00 68 1010.2
20260509211505 73 242 0.0 4.3 0.00 0.00 0.00 68 1009.9
20260509211503 73 242 0.9 4.3 0.00 0.00 0.00 68 1010.1
20260509211404 73 293 0.9 4.3 0.00 0.00 0.00 67 1010.2
20260509211303 73 224 0.9 4.3 0.00 0.00 0.00 68 1010.2
20260509211104 73 267 1.7 5.2 0.00 0.00 0.00 67 1010.0
20260509211003 73 242 0.9 5.2 0.00 0.00 0.00 67 1010.0
20260509210903 73 242 1.7 5.2 0.00 0.00 0.00 68 1010.0
20260509210804 73 276 1.7 5.2 0.00 0.00 0.00 68 1010.0
20260509210703 73 270 1.7 6.1 0.00 0.00 0.00 68 1010.0
20260509210604 73 267 1.7 6.1 0.00 0.00 0.00 68 1010.0
20260509210504 73 315 1.7 6.1 0.00 0.00 0.00 68 1010.0
20260509210404 73 248 1.7 6.1 0.00 0.00 0.00 68 1010.0
20260509210304 73 278 1.7 6.1 0.00 0.00 0.00 67 1010.0
20260509210105 73 276 1.7 6.1 0.00 0.00 0.00 68 1010.0
20260509210003 73 231 2.6 6.1 0.00 0.00 0.00 67 1009.8
20260509205903 73 232 0.9 6.1 0.00 0.00 0.00 67 1010.1
20260509205804 73 225 0.9 3.5 0.00 0.00 0.00 69 1010.0
20260509205703 72 309 0.9 3.5 0.00 0.00 0.00 70 1010.2
20260509205503 72 248 0.9 3.5 0.00 0.00 0.00 70 1010.2
20260509205402 72 257 0.9 3.5 0.00 0.00 0.00 69 1010.2
20260509205306 72 257 0.9 3.5 0.00 0.00 0.00 69 1010.2
20260509205102 72 238 0.9 3.5 0.00 0.00 0.00 69 1010.3
20260509205002 72 276 0.9 3.5 0.00 0.00 0.00 70 1010.4
20260509204603 72 326 0.9 3.5 0.00 0.00 0.00 69 1010.3
20260509204503 72 249 0.9 3.5 0.00 0.00 0.00 68 1010.3
20260509204404 72 228 0.9 4.3 0.00 0.00 0.00 68 1010.2
20260509204203 73 267 0.9 4.3 0.00 0.00 0.00 69 1010.2
20260509204002 73 250 0.0 1.7 0.00 0.00 0.00 69 1010.2
20260509203902 73 246 0.0 1.7 0.00 0.00 0.00 70 1010.1
20260509203802 72 211 0.0 1.7 0.00 0.00 0.00 70 1010.1
20260509203702 72 211 0.0 1.7 0.00 0.00 0.00 70 1010.2
20260509203503 72 236 0.9 1.7 0.00 0.00 0.00 70 1010.2
20260509203402 72 238 0.9 1.7 0.00 0.00 0.00 70 1010.1
20260509203302 72 256 0.9 3.5 0.00 0.00 0.00 70 1010.1
20260509203202 72 250 0.9 3.5 0.00 0.00 0.00 70 1010.1
20260509203104 72 252 0.9 3.5 0.00 0.00 0.00 70 1010.2
20260509203004 72 264 0.0 3.5 0.00 0.00 0.00 70 1009.9
20260509203002 72 264 0.9 3.5 0.00 0.00 0.00 70 1010.2
20260509202903 72 269 0.9 3.5 0.00 0.00 0.00 70 1010.2
20260509202802 72 226 0.9 3.5 0.00 0.00 0.00 69 1010.2
20260509202702 72 240 1.7 3.5 0.00 0.00 0.00 69 1010.2
20260509202402 71 226 0.9 7.0 0.00 0.00 0.00 70 1010.3
20260509202306 71 209 0.9 7.0 0.00 0.00 0.00 70 1010.2
20260509202202 71 267 0.9 7.0 0.00 0.00 0.00 69 1010.3
20260509202103 71 271 0.9 7.0 0.00 0.00 0.00 69 1010.3
20260509202003 71 321 0.9 7.0 0.00 0.00 0.00 70 1010.3
20260509201903 71 282 0.9 7.0 0.00 0.00 0.00 69 1010.4
20260509201804 71 247 0.9 7.0 0.00 0.00 0.00 69 1010.3
20260509201703 72 249 0.9 7.8 0.00 0.00 0.00 69 1010.3
20260509201604 72 269 0.9 2.6 0.00 0.00 0.00 69 1010.3
20260509201503 72 270 0.0 2.6 0.00 0.00 0.00 69 1010.1
20260509201302 72 247 0.9 2.6 0.00 0.00 0.00 69 1010.4
20260509201202 72 262 0.9 2.6 0.00 0.00 0.00 69 1010.4
20260509201102 72 263 0.0 2.6 0.00 0.00 0.00 69 1010.3
20260509201002 72 238 0.0 2.6 0.00 0.00 0.00 69 1010.3
20260509200802 72 243 0.0 2.6 0.00 0.00 0.00 69 1010.2
20260509200705 72 243 0.0 2.6 0.00 0.00 0.00 69 1010.2
20260509200603 72 252 0.0 2.6 0.00 0.00 0.00 69 1010.3
20260509200503 72 283 0.0 0.9 0.00 0.00 0.00 70 1010.3
20260509200302 72 282 0.0 0.9 0.00 0.00 0.00 70 1010.3
20260509200002 72 287 0.0 0.9 0.00 0.00 0.00 70 1010.1
20260509195902 72 284 0.0 0.9 0.00 0.00 0.00 70 1010.2
20260509195602 72 158 0.0 2.6 0.00 0.00 0.00 70 1010.4
20260509195502 72 156 0.0 2.6 0.00 0.00 0.00 69 1010.3
20260509195402 72 233 0.0 2.6 0.00 0.00 0.00 69 1010.3
20260509195306 72 233 0.0 2.6 0.00 0.00 0.00 68 1010.3
20260509195203 72 245 0.0 2.6 0.00 0.00 0.00 68 1010.3
20260509195103 72 269 0.0 2.6 0.00 0.00 0.00 67 1010.4
20260509194902 72 253 0.0 0.9 0.00 0.00 0.00 69 1010.5
20260509194804 72 253 0.0 0.9 0.00 0.00 0.00 68 1010.4
20260509194702 72 250 0.0 0.9 0.00 0.00 0.00 69 1010.6
20260509194602 72 252 0.0 0.9 0.00 0.00 0.00 69 1010.5
20260509194529 72 250 0.0 2.6 0.00 0.00 0.00 69 1010.5
20260509194402 72 245 0.0 2.6 0.00 0.00 0.00 68 1010.5
20260509194303 72 271 0.9 2.6 0.00 0.00 0.00 68 1010.7
20260509194202 72 161 0.9 2.6 0.00 0.00 0.00 69 1010.6
20260509194102 72 177 0.9 2.6 0.00 0.00 0.00 70 1010.7
20260509194002 72 173 0.9 2.6 0.00 0.00 0.00 70 1010.7
20260509193902 72 257 0.9 2.6 0.00 0.00 0.00 69 1010.7
20260509193803 72 255 0.9 2.6 0.00 0.00 0.00 68 1010.7
20260509193702 72 276 0.9 2.6 0.00 0.00 0.00 69 1010.7
20260509193602 72 271 0.9 2.6 0.00 0.00 0.00 69 1010.7
20260509193502 72 271 0.9 2.6 0.00 0.00 0.00 68 1010.9
20260509193302 72 253 0.9 2.6 0.00 0.00 0.00 67 1010.7
20260509193202 72 240 0.9 2.6 0.00 0.00 0.00 67 1010.7
20260509193104 72 240 0.0 2.6 0.00 0.00 0.00 67 1010.7
20260509193003 72 246 0.0 2.6 0.00 0.00 0.00 67 1010.5
20260509192802 72 231 0.9 2.6 0.00 0.00 0.00 67 1010.7
20260509192702 72 238 0.9 2.6 0.00 0.00 0.00 66 1010.8
20260509192603 72 236 0.9 2.6 0.00 0.00 0.00 65 1010.8
20260509192502 72 240 0.9 2.6 0.00 0.00 0.00 66 1010.9
20260509192402 72 245 0.9 2.6 0.00 0.00 0.00 65 1010.7
20260509192306 72 248 0.9 2.6 0.00 0.00 0.00 64 1010.8
20260509192202 72 236 0.9 2.6 0.00 0.00 0.00 66 1010.7
20260509192006 72 253 0.9 2.6 0.00 0.00 0.00 65 1010.8
20260509191903 72 282 0.9 3.5 0.00 0.00 0.00 65 1010.8
20260509191803 72 243 0.9 3.5 0.00 0.00 0.00 65 1010.7
20260509191703 72 260 0.9 3.5 0.00 0.00 0.00 65 1010.8
20260509191602 72 243 0.9 3.5 0.00 0.00 0.00 65 1010.8
20260509191503 72 243 0.9 3.5 0.00 0.00 0.00 65 1010.8
20260509191403 72 184 0.9 3.5 0.00 0.00 0.00 65 1010.7
20260509191303 72 295 0.9 3.5 0.00 0.00 0.00 64 1010.8
20260509191104 72 245 0.9 3.5 0.00 0.00 0.00 65 1010.9
20260509190902 72 257 0.9 2.6 0.00 0.00 0.00 66 1010.8
20260509190703 72 267 0.9 2.6 0.00 0.00 0.00 66 1010.7
20260509190603 72 262 0.9 2.6 0.00 0.00 0.00 66 1010.8
20260509190304 72 256 0.0 2.6 0.00 0.00 0.00 65 1010.9
20260509190202 72 240 0.0 2.6 0.00 0.00 0.00 67 1010.8
20260509190005 72 283 0.0 1.7 0.00 0.00 0.00 65 1010.8
20260509185802 72 257 0.9 2.6 0.00 0.00 0.00 65 1010.9
20260509185701 72 231 0.9 3.5 0.00 0.00 0.00 66 1011.0
20260509185602 72 250 0.9 3.5 0.00 0.00 0.00 67 1010.9
20260509185503 72 243 0.9 3.5 0.00 0.00 0.00 67 1010.9
20260509185402 72 158 0.9 3.5 0.00 0.00 0.00 66 1010.8
20260509185306 72 188 0.9 3.5 0.00 0.00 0.00 68 1010.8
20260509185202 72 216 0.9 3.5 0.00 0.00 0.00 68 1011.0
20260509185104 72 240 0.9 3.5 0.00 0.00 0.00 67 1011.0
20260509185002 72 239 0.9 3.5 0.00 0.00 0.00 66 1011.0
20260509184903 72 278 0.9 3.5 0.00 0.00 0.00 66 1011.0
20260509184802 72 248 0.9 3.5 0.00 0.00 0.00 66 1011.0
20260509184703 72 252 0.9 3.5 0.00 0.00 0.00 66 1011.2
20260509184603 72 304 0.9 3.5 0.00 0.00 0.00 66 1011.1
20260509184507 72 261 0.0 4.3 0.00 0.00 0.00 66 1010.9
20260509184502 72 261 0.9 4.3 0.00 0.00 0.00 66 1011.1
20260509184302 72 243 0.9 3.5 0.00 0.00 0.00 67 1011.1
20260509184202 72 285 0.9 3.5 0.00 0.00 0.00 66 1011.0
20260509184103 72 274 0.9 4.3 0.00 0.00 0.00 66 1011.0
20260509183902 72 251 0.9 4.3 0.00 0.00 0.00 66 1011.1
20260509183801 72 253 0.9 4.3 0.00 0.00 0.00 65 1011.0
20260509183702 72 282 0.9 4.3 0.00 0.00 0.00 66 1011.0
20260509183601 72 242 0.9 4.3 0.00 0.00 0.00 65 1011.0
20260509183504 72 257 0.9 4.3 0.00 0.00 0.00 65 1011.0
20260509183402 72 313 0.9 4.3 0.00 0.00 0.00 64 1010.8
20260509183302 72 240 0.9 4.3 0.00 0.00 0.00 63 1011.0
20260509183103 72 253 0.9 3.5 0.00 0.00 0.00 64 1011.1
20260509183004 72 252 0.0 3.5 0.00 0.00 0.00 63 1010.8
20260509183002 72 252 0.9 3.5 0.00 0.00 0.00 63 1011.1
20260509182902 72 259 0.9 3.5 0.00 0.00 0.00 63 1011.1
20260509182802 73 260 1.7 3.5 0.00 0.00 0.00 62 1011.2
20260509182702 73 269 1.7 7.0 0.00 0.00 0.00 63 1011.0
20260509182602 73 242 1.7 7.0 0.00 0.00 0.00 62 1011.0
20260509182503 73 240 1.7 7.0 0.00 0.00 0.00 62 1011.1
20260509182402 73 248 1.7 7.0 0.00 0.00 0.00 61 1011.1
20260509182306 73 253 1.7 7.0 0.00 0.00 0.00 61 1011.0
20260509182203 73 265 1.7 7.0 0.00 0.00 0.00 61 1011.1
20260509182003 74 250 1.7 7.0 0.00 0.00 0.00 60 1011.1
20260509181902 74 264 0.9 7.0 0.00 0.00 0.00 60 1011.2
20260509181802 74 221 0.9 5.2 0.00 0.00 0.00 59 1011.1
20260509181703 74 302 0.9 4.3 0.00 0.00 0.00 59 1011.0
20260509181602 74 280 0.9 4.3 0.00 0.00 0.00 61 1011.2
20260509181503 75 252 0.9 4.3 0.00 0.00 0.00 59 1011.2
20260509181403 75 256 0.9 4.3 0.00 0.00 0.00 60 1011.1
20260509181302 75 277 0.9 4.3 0.00 0.00 0.00 58 1011.1
20260509181202 75 260 0.9 4.3 0.00 0.00 0.00 59 1011.1
20260509181102 75 242 0.0 5.2 0.00 0.00 0.00 60 1011.0
20260509181004 75 226 0.9 2.6 0.00 0.00 0.00 61 1011.0
20260509180903 74 119 0.9 2.6 0.00 0.00 0.00 60 1011.1
20260509180802 74 159 0.9 2.6 0.00 0.00 0.00 61 1011.1
20260509180702 74 262 0.9 2.6 0.00 0.00 0.00 61 1011.1
20260509180603 74 245 0.9 3.5 0.00 0.00 0.00 61 1011.2
20260509180402 73 263 1.7 3.5 0.00 0.00 0.00 61 1011.3
20260509180302 73 278 1.7 3.5 0.00 0.00 0.00 62 1011.3
20260509180202 73 129 1.7 4.3 0.00 0.00 0.00 60 1011.3
20260509180003 73 253 0.9 4.3 0.00 0.00 0.00 60 1011.3
20260509175903 73 249 1.7 4.3 0.00 0.00 0.00 61 1011.5
20260509175802 73 249 1.7 4.3 0.00 0.00 0.00 61 1011.6
20260509175402 74 242 0.9 4.3 0.00 0.00 0.00 58 1011.6
20260509175301 74 286 0.9 5.2 0.00 0.00 0.00 59 1011.7
20260509175202 74 243 0.9 5.2 0.00 0.00 0.00 59 1011.6
20260509175101 74 225 0.9 5.2 0.00 0.00 0.00 61 1011.7
20260509175002 74 207 0.9 5.2 0.00 0.00 0.00 59 1011.6
20260509174901 73 259 0.9 5.2 0.00 0.00 0.00 59 1011.6
20260509174801 73 262 0.9 5.2 0.00 0.00 0.00 60 1011.7
20260509174701 73 124 0.9 5.2 0.00 0.00 0.00 60 1011.7
20260509174502 73 280 0.9 5.2 0.00 0.00 0.00 59 1011.7
20260509174402 73 262 0.9 5.2 0.00 0.00 0.00 60 1011.8
20260509174302 73 313 0.9 2.6 0.00 0.00 0.00 59 1011.8
20260509174201 73 273 0.9 2.6 0.00 0.00 0.00 60 1011.7
20260509174101 73 259 0.9 4.3 0.00 0.00 0.00 59 1011.7
20260509174002 73 285 0.9 4.3 0.00 0.00 0.00 60 1011.7
20260509173801 73 243 0.9 4.3 0.00 0.00 0.00 62 1011.8
20260509173702 73 197 0.9 4.3 0.00 0.00 0.00 61 1011.8
20260509173501 73 201 1.7 4.3 0.00 0.00 0.00 60 1011.8
20260509173401 73 240 1.7 4.3 0.00 0.00 0.00 60 1011.8
20260509173300 73 248 1.7 4.3 0.00 0.00 0.00 59 1011.7
20260509173201 73 265 1.7 4.3 0.00 0.00 0.00 60 1011.7
20260509173101 73 238 1.7 4.3 0.00 0.00 0.00 60 1011.8
20260509173002 73 233 1.7 4.3 0.00 0.00 0.00 58 1011.7
20260509172903 73 282 1.7 4.3 0.00 0.00 0.00 59 1011.8
20260509172801 73 245 1.7 4.3 0.00 0.00 0.00 60 1011.9
20260509172701 73 263 0.9 4.3 0.00 0.00 0.00 59 1011.9
20260509172502 73 269 0.9 2.6 0.00 0.00 0.00 59 1012.0
20260509172401 73 249 0.9 2.6 0.00 0.00 0.00 59 1011.9
20260509172306 73 239 0.9 2.6 0.00 0.00 0.00 60 1011.8
20260509172201 73 243 0.9 3.5 0.00 0.00 0.00 59 1011.9
20260509172101 73 242 0.9 3.5 0.00 0.00 0.00 59 1011.9
20260509172003 73 236 0.9 3.5 0.00 0.00 0.00 59 1012.0
20260509171902 73 232 0.9 3.5 0.00 0.00 0.00 60 1011.9
20260509171601 73 243 0.9 3.5 0.00 0.00 0.00 60 1012.0
20260509171502 73 300 0.9 3.5 0.00 0.00 0.00 60 1012.0
20260509171401 73 252 0.9 3.5 0.00 0.00 0.00 61 1011.9
20260509171302 73 259 0.0 2.6 0.00 0.00 0.00 62 1012.0
20260509171201 73 239 0.0 2.6 0.00 0.00 0.00 61 1012.1
20260509171101 73 164 0.0 2.6 0.00 0.00 0.00 61 1012.1
20260509171002 73 236 0.0 2.6 0.00 0.00 0.00 62 1012.1
20260509170701 72 230 0.9 3.5 0.00 0.00 0.00 65 1012.1
20260509170601 72 219 0.9 3.5 0.00 0.00 0.00 64 1012.0
20260509170301 72 245 0.9 3.5 0.00 0.00 0.00 64 1012.1
20260509170001 72 288 0.9 3.5 0.00 0.00 0.00 61 1011.9
20260509165802 72 250 0.9 3.5 0.00 0.00 0.00 61 1012.2
20260509165703 72 260 0.9 3.5 0.00 0.00 0.00 63 1012.2
20260509165602 72 180 0.9 3.5 0.00 0.00 0.00 62 1012.2
20260509165502 72 150 0.9 3.5 0.00 0.00 0.00 63 1012.3
20260509165402 72 257 0.9 3.5 0.00 0.00 0.00 64 1012.3
20260509165301 72 58 0.9 3.5 0.00 0.00 0.00 63 1012.4
20260509165201 72 259 0.9 3.5 0.00 0.00 0.00 62 1012.4
20260509165100 72 229 0.9 3.5 0.00 0.00 0.00 63 1012.5
20260509165002 72 232 0.9 3.5 0.00 0.00 0.00 63 1012.4
20260509164902 72 165 0.9 3.5 0.00 0.00 0.00 63 1012.6
20260509164801 72 238 0.9 3.5 0.00 0.00 0.00 61 1012.6
20260509164701 72 259 0.9 3.5 0.00 0.00 0.00 63 1012.5
20260509164602 72 239 0.9 3.5 0.00 0.00 0.00 61 1012.5
20260509164501 72 269 0.9 3.5 0.00 0.00 0.00 64 1012.5
20260509164401 72 191 0.9 4.3 0.00 0.00 0.00 63 1012.5
20260509164201 72 224 0.9 4.3 0.00 0.00 0.00 65 1012.4
20260509164101 71 256 0.9 4.3 0.00 0.00 0.00 63 1012.4
20260509164001 71 257 0.9 4.3 0.00 0.00 0.00 62 1012.5
20260509163901 71 271 0.9 4.3 0.00 0.00 0.00 64 1012.4
20260509163802 71 266 0.9 4.3 0.00 0.00 0.00 62 1012.5
20260509163701 71 265 0.9 4.3 0.00 0.00 0.00 63 1012.6
20260509163601 71 249 0.9 4.3 0.00 0.00 0.00 63 1012.6
20260509163500 71 256 0.9 5.2 0.00 0.00 0.00 63 1012.5
20260509163401 71 250 0.9 3.5 0.00 0.00 0.00 64 1012.5
20260509163301 71 246 0.9 3.5 0.00 0.00 0.00 64 1012.5
20260509163201 71 244 0.9 5.2 0.00 0.00 0.00 65 1012.5
20260509163101 71 238 0.9 5.2 0.00 0.00 0.00 64 1012.5
20260509163007 71 284 0.9 5.2 0.00 0.00 0.00 65 1012.4
20260509163001 71 284 0.9 5.2 0.00 0.00 0.00 65 1012.2
20260509162901 71 255 0.9 5.2 0.00 0.00 0.00 65 1012.4